KJ6MC Weather Reports


time (UTC)temp
F
wind
direction
speed
knots
gust
knots
rain 1hr
in
rain 24hr
in
rain mn
in
humidity
%
barometer
mb
20211017154527 56 146 0.9 2.6 0.00 0.00 0.00 56 1011.7
20211017154427 56 110 0.9 2.6 0.00 0.00 0.00 56 1011.6
20211017154326 56 124 0.9 2.6 0.00 0.00 0.00 56 1011.5
20211017154304 56 121 0.9 2.6 0.00 0.00 0.00 56 1011.5
20211017154226 56 84 0.9 2.6 0.00 0.00 0.00 55 1011.6
20211017154124 55 84 0.9 2.6 0.00 0.00 0.00 56 1011.5
20211017154024 55 105 0.9 2.6 0.00 0.00 0.00 56 1011.5
20211017153922 55 84 0.9 2.6 0.00 0.00 0.00 57 1011.6
20211017153822 55 94 0.9 2.6 0.00 0.00 0.00 58 1011.6
20211017153758 55 91 0.9 2.6 0.00 0.00 0.00 58 1011.6
20211017153725 55 96 0.9 1.7 0.00 0.00 0.00 59 1011.6
20211017153618 55 96 0.0 1.7 0.00 0.00 0.00 59 1011.7
20211017153515 55 120 0.0 1.7 0.00 0.00 0.00 58 1011.8
20211017153413 55 120 0.0 1.7 0.00 0.00 0.00 59 1011.7
20211017153312 55 105 0.0 1.7 0.00 0.00 0.00 58 1011.7
20211017153251 55 94 0.0 1.7 0.00 0.00 0.00 58 1011.7
20211017153211 55 94 0.0 1.7 0.00 0.00 0.00 60 1011.7
20211017153111 55 77 0.0 1.7 0.00 0.00 0.00 60 1011.8
20211017153009 55 116 0.0 0.9 0.00 0.00 0.00 59 1011.8
20211017152910 55 136 0.0 0.9 0.00 0.00 0.00 60 1011.9
20211017152810 55 146 0.0 0.9 0.00 0.00 0.00 60 1012.0
20211017152744 55 145 0.0 0.9 0.00 0.00 0.00 60 1012.0
20211017152707 55 145 0.0 0.9 0.00 0.00 0.00 60 1012.0
20211017152605 55 129 0.0 0.9 0.00 0.00 0.00 60 1011.9
20211017152504 55 130 0.0 0.9 0.00 0.00 0.00 60 1011.8
20211017152404 54 131 0.0 0.9 0.00 0.00 0.00 60 1011.9
20211017152305 55 100 0.0 0.9 0.00 0.00 0.00 60 1012.0
20211017152238 54 102 0.0 0.9 0.00 0.00 0.00 60 1012.0
20211017152204 54 224 0.0 0.9 0.00 0.00 0.00 60 1012.0
20211017152059 54 224 0.0 0.9 0.00 0.00 0.00 60 1012.0
20211017151954 54 224 0.0 1.7 0.00 0.00 0.00 59 1012.0
20211017151854 54 224 0.0 2.6 0.00 0.00 0.00 59 1011.9
20211017151739 54 224 0.0 2.6 0.00 0.00 0.00 61 1011.9
20211017151651 54 224 0.0 2.6 0.00 0.00 0.00 61 1011.9
20211017151551 54 224 0.0 2.6 0.00 0.00 0.00 61 1011.9
20211017151452 53 224 0.0 2.6 0.00 0.00 0.00 61 1011.9
20211017151350 53 224 0.0 2.6 0.00 0.00 0.00 60 1011.9
20211017151249 53 223 0.0 2.6 0.00 0.00 0.00 60 1011.9
20211017151240 53 224 0.0 2.6 0.00 0.00 0.00 60 1011.8
20211017151148 53 224 0.0 2.6 0.00 0.00 0.00 60 1011.8
20211017151047 53 224 0.0 2.6 0.00 0.00 0.00 60 1011.8
20211017150939 52 233 0.0 2.6 0.00 0.00 0.00 61 1011.7
20211017150839 52 130 0.0 0.0 0.00 0.00 0.00 65 1011.7
20211017150739 52 130 0.0 0.0 0.00 0.00 0.00 66 1011.6
20211017150639 51 129 0.0 0.0 0.00 0.00 0.00 67 1011.6
20211017150540 51 129 0.0 0.0 0.00 0.00 0.00 69 1011.7
20211017150436 50 129 0.0 0.0 0.00 0.00 0.00 69 1011.7
20211017150335 50 129 0.0 0.0 0.00 0.00 0.00 69 1011.7
20211017150237 50 130 0.0 0.0 0.00 0.00 0.00 69 1011.6
20211017150136 50 130 0.0 0.0 0.00 0.00 0.00 70 1011.6
20211017150032 49 130 0.0 0.0 0.00 0.00 0.00 69 1011.5
20211017145929 49 130 0.0 0.0 0.00 0.00 0.00 69 1011.5
20211017145829 49 130 0.0 0.0 0.00 0.00 0.00 71 1011.5
20211017145739 49 130 0.0 0.0 0.00 0.00 0.00 71 1011.5
20211017145729 49 130 0.0 0.0 0.00 0.00 0.00 70 1011.5
20211017145629 49 129 0.0 0.0 0.00 0.00 0.00 70 1011.5
20211017145527 48 130 0.0 0.0 0.00 0.00 0.00 69 1011.5
20211017145422 48 129 0.0 0.0 0.00 0.00 0.00 70 1011.5
20211017145322 48 130 0.0 0.0 0.00 0.00 0.00 70 1011.5
20211017145221 48 113 0.0 0.0 0.00 0.00 0.00 70 1011.4
20211017145122 48 111 0.0 0.0 0.00 0.00 0.00 70 1011.3
20211017145021 48 111 0.0 0.0 0.00 0.00 0.00 70 1011.2
20211017144919 48 112 0.0 0.0 0.00 0.00 0.00 69 1011.2
20211017144817 48 111 0.0 0.0 0.00 0.00 0.00 69 1011.1
20211017144715 48 112 0.0 0.0 0.00 0.00 0.00 69 1011.1
20211017144616 48 111 0.0 0.0 0.00 0.00 0.00 69 1011.1
20211017144517 48 110 0.0 0.0 0.00 0.00 0.00 69 1011.1
20211017144414 48 112 0.0 0.0 0.00 0.00 0.00 69 1011.1
20211017144313 48 111 0.0 0.0 0.00 0.00 0.00 69 1011.1
20211017144238 48 110 0.0 0.0 0.00 0.00 0.00 69 1011.1
20211017144211 48 110 0.0 0.0 0.00 0.00 0.00 68 1011.1
20211017144112 48 112 0.0 0.0 0.00 0.00 0.00 67 1011.1
20211017144009 48 112 0.0 0.0 0.00 0.00 0.00 67 1011.1
20211017143904 48 112 0.0 0.9 0.00 0.00 0.00 67 1011.1
20211017143739 48 111 0.0 0.9 0.00 0.00 0.00 67 1011.1
20211017143703 48 112 0.0 0.9 0.00 0.00 0.00 67 1011.1
20211017143604 48 110 0.0 1.7 0.00 0.00 0.00 67 1011.1
20211017143505 48 111 0.0 1.7 0.00 0.00 0.00 67 1011.1
20211017143404 48 112 0.0 1.7 0.00 0.00 0.00 68 1011.1
20211017143303 48 112 0.0 1.7 0.00 0.00 0.00 68 1011.1
20211017143239 48 111 0.0 1.7 0.00 0.00 0.00 68 1011.1
20211017143159 48 112 0.0 1.7 0.00 0.00 0.00 68 1011.1
20211017143101 48 112 0.9 1.7 0.00 0.00 0.00 67 1011.0
20211017142958 48 111 0.9 1.7 0.00 0.00 0.00 68 1011.1
20211017142855 48 112 0.9 1.7 0.00 0.00 0.00 68 1011.1
20211017142755 48 116 0.9 1.7 0.00 0.00 0.00 68 1011.1
20211017142736 48 115 0.0 1.7 0.00 0.00 0.00 69 1011.1
20211017142655 47 108 0.0 1.7 0.00 0.00 0.00 69 1011.1
20211017142555 47 109 0.0 1.7 0.00 0.00 0.00 70 1011.1
20211017142451 47 108 0.0 0.9 0.00 0.00 0.00 70 1011.0
20211017142348 47 109 0.0 0.9 0.00 0.00 0.00 71 1011.1
20211017142236 47 109 0.0 0.9 0.00 0.00 0.00 71 1011.1
20211017142145 47 109 0.0 0.9 0.00 0.00 0.00 72 1011.2
20211017142046 47 109 0.0 0.0 0.00 0.00 0.00 72 1011.2
20211017141945 47 109 0.0 0.0 0.00 0.00 0.00 72 1011.2
20211017141843 47 109 0.0 0.0 0.00 0.00 0.00 72 1011.2
20211017141736 48 109 0.0 0.9 0.00 0.00 0.00 71 1011.3
20211017141643 48 109 0.0 0.9 0.00 0.00 0.00 70 1011.2
20211017141543 48 109 0.0 0.9 0.00 0.00 0.00 70 1011.2
20211017141439 48 109 0.0 0.9 0.00 0.00 0.00 70 1011.2
20211017141337 48 108 0.0 0.9 0.00 0.00 0.00 70 1011.2
20211017141234 48 109 0.0 0.9 0.00 0.00 0.00 69 1011.2
20211017141134 48 109 0.0 0.9 0.00 0.00 0.00 69 1011.2
20211017141034 48 109 0.0 0.9 0.00 0.00 0.00 70 1011.2
20211017140933 48 109 0.0 0.9 0.00 0.00 0.00 70 1011.2
20211017140833 48 109 0.0 0.9 0.00 0.00 0.00 71 1011.2
20211017140732 48 109 0.0 0.0 0.00 0.00 0.00 71 1011.2
20211017140632 48 109 0.0 0.0 0.00 0.00 0.00 71 1011.2
20211017140529 48 109 0.0 0.0 0.00 0.00 0.00 69 1011.2
20211017140427 48 109 0.0 0.0 0.00 0.00 0.00 69 1011.3
20211017140323 48 109 0.0 0.0 0.00 0.00 0.00 70 1011.3
20211017140222 48 109 0.0 0.0 0.00 0.00 0.00 70 1011.3
20211017140121 48 109 0.0 0.0 0.00 0.00 0.00 71 1011.3
20211017140029 48 109 0.0 0.0 0.00 0.00 0.00 71 1011.3
20211017135919 48 109 0.0 0.0 0.00 0.00 0.00 71 1011.3
20211017135814 48 108 0.0 0.0 0.00 0.00 0.00 71 1011.3
20211017135714 48 109 0.0 0.0 0.00 0.00 0.00 70 1011.3
20211017135615 48 109 0.0 0.0 0.00 0.00 0.00 70 1011.3
20211017135513 48 109 0.0 0.0 0.00 0.00 0.00 69 1011.2
20211017135413 48 109 0.0 0.0 0.00 0.00 0.00 69 1011.2
20211017135309 48 109 0.0 0.0 0.00 0.00 0.00 68 1011.2
20211017135207 48 109 0.0 0.0 0.00 0.00 0.00 68 1011.2
20211017135108 48 109 0.0 0.0 0.00 0.00 0.00 69 1011.2
20211017135013 48 109 0.0 0.0 0.00 0.00 0.00 68 1011.2
20211017134907 49 109 0.0 0.0 0.00 0.00 0.00 68 1011.2
20211017134808 49 109 0.0 0.0 0.00 0.00 0.00 68 1011.2
20211017134733 49 108 0.0 0.0 0.00 0.00 0.00 68 1011.1
20211017134707 49 109 0.0 0.0 0.00 0.00 0.00 68 1011.1
20211017134604 49 109 0.0 0.0 0.00 0.00 0.00 67 1011.1
20211017134509 49 109 0.0 0.0 0.00 0.00 0.00 67 1011.1
20211017134401 49 108 0.0 0.0 0.00 0.00 0.00 65 1011.1
20211017134234 49 109 0.0 0.0 0.00 0.00 0.00 65 1011.1
20211017134159 49 109 0.0 0.9 0.00 0.00 0.00 65 1011.1
20211017134059 49 109 0.0 1.7 0.00 0.00 0.00 65 1011.0
20211017133958 49 109 0.0 1.7 0.00 0.00 0.00 66 1011.0
20211017133855 49 109 0.0 1.7 0.00 0.00 0.00 66 1011.0
20211017133733 49 109 0.0 1.7 0.00 0.00 0.00 66 1011.0
20211017133649 49 109 0.0 1.7 0.00 0.00 0.00 64 1011.0
20211017133550 49 109 0.0 1.7 0.00 0.00 0.00 64 1011.0
20211017133450 49 109 0.0 1.7 0.00 0.00 0.00 64 1011.0
20211017133350 49 109 0.0 1.7 0.00 0.00 0.00 65 1011.0
20211017133233 49 108 0.0 1.7 0.00 0.00 0.00 65 1010.9
20211017133144 49 120 0.0 1.7 0.00 0.00 0.00 66 1010.9
20211017133043 49 116 0.0 0.9 0.00 0.00 0.00 67 1010.9
20211017132943 49 95 0.0 0.9 0.00 0.00 0.00 67 1010.9
20211017132842 49 95 0.0 0.9 0.00 0.00 0.00 67 1010.9
20211017132732 49 95 0.0 0.9 0.00 0.00 0.00 67 1010.9
20211017132641 49 94 0.0 0.9 0.00 0.00 0.00 68 1011.0
20211017132540 49 95 0.0 0.0 0.00 0.00 0.00 68 1011.0
20211017132440 49 95 0.0 0.0 0.00 0.00 0.00 68 1011.0
20211017132337 49 95 0.0 0.0 0.00 0.00 0.00 69 1011.0
20211017132235 49 95 0.0 0.0 0.00 0.00 0.00 69 1011.0
20211017132131 49 95 0.0 0.0 0.00 0.00 0.00 69 1011.0
20211017132031 49 95 0.0 0.0 0.00 0.00 0.00 70 1011.0
20211017131932 49 95 0.0 0.0 0.00 0.00 0.00 69 1011.0
20211017131831 49 95 0.0 0.0 0.00 0.00 0.00 68 1011.0
20211017131733 49 95 0.0 0.0 0.00 0.00 0.00 68 1011.0
20211017131630 49 95 0.0 0.0 0.00 0.00 0.00 68 1011.0
20211017131530 49 95 0.0 0.0 0.00 0.00 0.00 67 1011.0
20211017131427 49 95 0.0 0.0 0.00 0.00 0.00 67 1011.0
20211017131326 49 94 0.0 0.0 0.00 0.00 0.00 67 1010.9
20211017131226 49 95 0.0 0.0 0.00 0.00 0.00 67 1010.9
20211017131123 49 95 0.0 0.0 0.00 0.00 0.00 66 1010.9
20211017131026 49 94 0.0 0.0 0.00 0.00 0.00 64 1010.8
20211017130922 49 95 0.0 0.0 0.00 0.00 0.00 65 1010.9
20211017130819 49 95 0.0 0.0 0.00 0.00 0.00 66 1010.9
20211017130715 49 95 0.0 0.0 0.00 0.00 0.00 66 1010.9
20211017130614 49 94 0.0 0.0 0.00 0.00 0.00 66 1010.8
20211017130513 49 95 0.0 0.0 0.00 0.00 0.00 67 1010.9
20211017130413 49 95 0.0 0.0 0.00 0.00 0.00 67 1010.9
20211017130313 49 95 0.0 0.0 0.00 0.00 0.00 67 1010.9
20211017130213 49 95 0.0 0.0 0.00 0.00 0.00 66 1010.9
20211017130111 49 95 0.0 0.0 0.00 0.00 0.00 67 1010.9
20211017130020 49 95 0.0 0.0 0.00 0.00 0.00 69 1010.9
20211017125910 49 95 0.0 0.0 0.00 0.00 0.00 69 1010.9
20211017125807 49 94 0.0 0.0 0.00 0.00 0.00 68 1010.8
20211017125724 49 95 0.0 0.0 0.00 0.00 0.00 67 1010.8
20211017125703 49 95 0.0 0.0 0.00 0.00 0.00 67 1010.8
20211017125602 49 95 0.0 0.0 0.00 0.00 0.00 66 1010.9
20211017125506 49 95 0.0 0.0 0.00 0.00 0.00 67 1010.8
20211017125401 49 94 0.0 0.0 0.00 0.00 0.00 66 1010.9
20211017125301 49 95 0.0 0.0 0.00 0.00 0.00 67 1010.9
20211017125222 49 95 0.0 0.0 0.00 0.00 0.00 68 1010.9
20211017125158 49 95 0.0 0.0 0.00 0.00 0.00 68 1010.9
20211017125056 49 95 0.0 0.0 0.00 0.00 0.00 69 1010.8
20211017124956 49 95 0.0 0.0 0.00 0.00 0.00 69 1010.9
20211017124856 49 95 0.0 0.0 0.00 0.00 0.00 69 1010.9
20211017124755 49 95 0.0 0.0 0.00 0.00 0.00 69 1010.9
20211017124721 49 94 0.0 0.0 0.00 0.00 0.00 69 1010.9
20211017124656 49 95 0.0 0.0 0.00 0.00 0.00 69 1010.9
20211017124553 49 95 0.0 0.0 0.00 0.00 0.00 68 1010.9
20211017124451 49 95 0.0 0.0 0.00 0.00 0.00 67 1010.9
20211017124351 49 95 0.0 0.0 0.00 0.00 0.00 67 1010.9
20211017124249 49 95 0.0 0.0 0.00 0.00 0.00 68 1010.9
20211017124219 49 95 0.0 0.0 0.00 0.00 0.00 70 1010.9
20211017124146 49 95 0.0 0.0 0.00 0.00 0.00 70 1011.0
20211017124044 49 94 0.0 0.0 0.00 0.00 0.00 70 1011.0
20211017123944 49 95 0.0 0.0 0.00 0.00 0.00 69 1011.0
20211017123844 49 94 0.0 0.0 0.00 0.00 0.00 69 1011.0
20211017123717 49 95 0.0 0.0 0.00 0.00 0.00 68 1011.0
20211017123641 49 95 0.0 0.0 0.00 0.00 0.00 68 1011.0
20211017123539 49 95 0.0 0.0 0.00 0.00 0.00 68 1011.0
20211017123439 49 95 0.0 0.0 0.00 0.00 0.00 68 1011.0
20211017123339 49 94 0.0 0.0 0.00 0.00 0.00 67 1011.0
20211017123217 50 95 0.0 0.0 0.00 0.00 0.00 68 1011.0
20211017123135 50 95 0.0 0.0 0.00 0.00 0.00 68 1011.0
20211017123037 50 95 0.0 0.0 0.00 0.00 0.00 67 1011.0
20211017122934 50 95 0.0 0.0 0.00 0.00 0.00 66 1011.0
20211017122833 50 95 0.0 0.0 0.00 0.00 0.00 66 1011.0
20211017122714 50 95 0.0 0.0 0.00 0.00 0.00 66 1011.0
20211017122627 50 95 0.0 0.0 0.00 0.00 0.00 66 1011.0
20211017122528 50 95 0.0 0.0 0.00 0.00 0.00 66 1011.0
20211017122425 50 95 0.0 0.0 0.00 0.00 0.00 66 1011.0
20211017122326 50 95 0.0 0.0 0.00 0.00 0.00 66 1011.0
20211017122212 50 95 0.0 0.0 0.00 0.00 0.00 66 1011.0
20211017122119 50 95 0.0 0.0 0.00 0.00 0.00 65 1011.0
20211017122020 50 95 0.0 0.0 0.00 0.00 0.00 65 1011.0
20211017121917 50 95 0.0 0.0 0.00 0.00 0.00 64 1011.0
20211017121817 50 95 0.0 0.0 0.00 0.00 0.00 63 1011.0
20211017121716 50 95 0.0 0.0 0.00 0.00 0.00 64 1011.0
20211017121613 50 95 0.0 0.0 0.00 0.00 0.00 64 1011.0
20211017121513 50 95 0.0 0.0 0.00 0.00 0.00 62 1010.9
20211017121413 51 94 0.0 0.0 0.00 0.00 0.00 61 1010.9
20211017121311 51 95 0.0 0.0 0.00 0.00 0.00 60 1010.9
20211017121210 51 95 0.0 0.0 0.00 0.00 0.00 60 1010.9
20211017121108 51 95 0.0 0.0 0.00 0.00 0.00 61 1010.9
20211017121008 51 95 0.0 0.0 0.00 0.00 0.00 61 1011.0
20211017120908 51 95 0.0 0.0 0.00 0.00 0.00 62 1011.0
20211017120805 51 95 0.0 0.0 0.00 0.00 0.00 62 1011.0
20211017120704 51 95 0.0 0.0 0.00 0.00 0.00 62 1011.0
20211017120602 51 95 0.0 0.0 0.00 0.00 0.00 62 1011.0
20211017120502 51 95 0.0 0.0 0.00 0.00 0.00 62 1011.0
20211017120401 51 95 0.0 0.0 0.00 0.00 0.00 61 1011.0
20211017120259 51 95 0.0 0.0 0.00 0.00 0.00 59 1011.0
20211017120158 51 95 0.0 0.0 0.00 0.00 0.00 58 1011.0
20211017120057 52 95 0.0 0.0 0.00 0.00 0.00 58 1011.0
20211017115955 52 95 0.0 0.0 0.00 0.00 0.00 59 1011.1
20211017115855 52 95 0.0 0.0 0.00 0.00 0.00 59 1011.1
20211017115754 52 95 0.0 0.0 0.00 0.00 0.00 59 1011.1
20211017115652 52 95 0.0 0.0 0.00 0.00 0.00 58 1011.1
20211017115549 52 94 0.0 0.0 0.00 0.00 0.00 57 1011.1
20211017115449 52 95 0.0 0.0 0.00 0.00 0.00 55 1011.1
20211017115350 52 95 0.0 0.0 0.00 0.00 0.00 56 1011.1
20211017115247 52 95 0.0 0.0 0.00 0.00 0.00 56 1011.1
20211017115154 52 95 0.0 0.0 0.00 0.00 0.00 56 1011.0
20211017115039 52 95 0.0 0.0 0.00 0.00 0.00 55 1011.0
20211017114941 52 95 0.0 0.0 0.00 0.00 0.00 56 1011.0
20211017114840 52 95 0.0 0.0 0.00 0.00 0.00 57 1011.1
20211017114739 52 95 0.0 0.0 0.00 0.00 0.00 58 1011.1
20211017114640 52 95 0.0 0.0 0.00 0.00 0.00 57 1011.1
20211017114537 52 95 0.0 0.0 0.00 0.00 0.00 58 1011.0
20211017114437 52 95 0.0 0.0 0.00 0.00 0.00 58 1011.0
20211017114338 52 95 0.0 0.0 0.00 0.00 0.00 59 1011.0
20211017114234 52 94 0.0 0.0 0.00 0.00 0.00 59 1011.1
20211017114134 52 95 0.0 0.0 0.00 0.00 0.00 58 1011.1
20211017114033 51 95 0.0 0.0 0.00 0.00 0.00 57 1011.1
20211017113932 51 95 0.0 0.0 0.00 0.00 0.00 57 1011.1
20211017113831 51 95 0.0 0.0 0.00 0.00 0.00 56 1011.1
20211017113730 51 95 0.0 0.0 0.00 0.00 0.00 56 1011.1
20211017113630 51 95 0.0 0.0 0.00 0.00 0.00 56 1011.1
20211017113526 51 95 0.0 0.0 0.00 0.00 0.00 56 1011.2
20211017113426 51 95 0.0 0.0 0.00 0.00 0.00 56 1011.2
20211017113326 51 95 0.0 0.0 0.00 0.00 0.00 57 1011.1
20211017113223 51 95 0.0 0.0 0.00 0.00 0.00 57 1011.2
20211017113123 51 95 0.0 0.0 0.00 0.00 0.00 57 1011.1
20211017113020 51 95 0.0 0.0 0.00 0.00 0.00 57 1011.1
20211017112919 51 94 0.0 0.0 0.00 0.00 0.00 57 1011.1
20211017112820 51 95 0.0 0.0 0.00 0.00 0.00 58 1011.2
20211017112717 51 95 0.0 0.0 0.00 0.00 0.00 57 1011.1
20211017112616 51 95 0.0 0.0 0.00 0.00 0.00 57 1011.1
20211017112514 51 94 0.0 0.0 0.00 0.00 0.00 57 1011.1
20211017112414 52 95 0.0 0.0 0.00 0.00 0.00 58 1011.1
20211017112313 52 95 0.0 0.0 0.00 0.00 0.00 61 1011.1
20211017112211 52 95 0.0 0.0 0.00 0.00 0.00 60 1011.1
20211017112111 52 95 0.0 0.0 0.00 0.00 0.00 59 1011.1
20211017112009 52 95 0.0 0.0 0.00 0.00 0.00 58 1011.1
20211017111908 52 95 0.0 0.0 0.00 0.00 0.00 58 1011.2
20211017111808 52 95 0.0 0.0 0.00 0.00 0.00 58 1011.2
20211017111705 52 95 0.0 0.0 0.00 0.00 0.00 58 1011.2
20211017111608 52 95 0.0 0.0 0.00 0.00 0.00 59 1011.2
20211017111510 52 95 0.0 0.0 0.00 0.00 0.00 58 1011.2
20211017111401 52 95 0.0 0.0 0.00 0.00 0.00 58 1011.2
20211017111301 52 95 0.0 0.0 0.00 0.00 0.00 60 1011.2
20211017111200 52 95 0.0 0.0 0.00 0.00 0.00 60 1011.3
20211017111059 52 95 0.0 0.0 0.00 0.00 0.00 60 1011.3
20211017110958 52 95 0.0 0.0 0.00 0.00 0.00 59 1011.2
20211017110855 52 95 0.0 0.0 0.00 0.00 0.00 59 1011.2
20211017110753 52 95 0.0 0.0 0.00 0.00 0.00 59 1011.3
20211017110653 52 95 0.0 0.0 0.00 0.00 0.00 60 1011.3
20211017110553 52 95 0.0 0.0 0.00 0.00 0.00 60 1011.3
20211017110450 53 94 0.0 0.0 0.00 0.00 0.00 59 1011.3
20211017110350 53 95 0.0 0.0 0.00 0.00 0.00 59 1011.3
20211017110247 53 95 0.0 0.0 0.00 0.00 0.00 57 1011.4
20211017110149 53 95 0.0 0.0 0.00 0.00 0.00 56 1011.4
20211017110100 53 95 0.0 0.0 0.00 0.00 0.00 56 1011.4
20211017105945 53 95 0.0 0.0 0.00 0.00 0.00 56 1011.4
20211017105843 53 95 0.0 0.0 0.00 0.00 0.00 56 1011.4
20211017105744 53 95 0.0 0.0 0.00 0.00 0.00 56 1011.4
20211017105642 53 95 0.0 0.9 0.00 0.00 0.00 56 1011.3
20211017105540 53 95 0.0 0.9 0.00 0.00 0.00 56 1011.4
20211017105439 53 95 0.0 0.9 0.00 0.00 0.00 56 1011.4
20211017105337 53 95 0.0 0.9 0.00 0.00 0.00 56 1011.4
20211017105238 53 95 0.0 0.9 0.00 0.00 0.00 56 1011.4
20211017105136 53 95 0.0 0.9 0.00 0.00 0.00 57 1011.5
20211017105042 53 95 0.0 0.9 0.00 0.00 0.00 58 1011.5
20211017104929 53 95 0.0 0.9 0.00 0.00 0.00 56 1011.5
20211017104827 53 95 0.0 0.9 0.00 0.00 0.00 56 1011.4
20211017104727 53 95 0.0 0.9 0.00 0.00 0.00 56 1011.5
20211017104627 53 94 0.0 0.9 0.00 0.00 0.00 56 1011.5
20211017104529 53 95 0.0 0.9 0.00 0.00 0.00 55 1011.5
20211017104423 53 95 0.0 0.9 0.00 0.00 0.00 55 1011.5
20211017104324 53 95 0.0 0.9 0.00 0.00 0.00 56 1011.5
20211017104224 53 95 0.0 0.9 0.00 0.00 0.00 56 1011.5
20211017104123 53 95 0.0 0.9 0.00 0.00 0.00 57 1011.5
20211017104024 53 95 0.0 0.0 0.00 0.00 0.00 56 1011.5
20211017103922 53 95 0.0 0.0 0.00 0.00 0.00 55 1011.5
20211017103820 53 95 0.0 0.0 0.00 0.00 0.00 55 1011.5
20211017103717 53 95 0.0 0.0 0.00 0.00 0.00 56 1011.5
20211017103617 53 95 0.0 0.0 0.00 0.00 0.00 57 1011.6
20211017103516 53 95 0.0 0.0 0.00 0.00 0.00 58 1011.5
20211017103413 53 95 0.0 0.0 0.00 0.00 0.00 58 1011.5
20211017103316 53 95 0.0 0.0 0.00 0.00 0.00 59 1011.6
20211017103213 53 95 0.0 0.0 0.00 0.00 0.00 59 1011.6
20211017103112 53 95 0.0 0.0 0.00 0.00 0.00 60 1011.6
20211017103010 53 95 0.0 0.0 0.00 0.00 0.00 60 1011.6
20211017102909 53 95 0.0 0.0 0.00 0.00 0.00 60 1011.6
20211017102809 53 95 0.0 0.0 0.00 0.00 0.00 58 1011.6
20211017102705 53 95 0.0 0.0 0.00 0.00 0.00 56 1011.6
20211017102606 53 94 0.0 0.0 0.00 0.00 0.00 56 1011.6
20211017102510 53 95 0.0 0.0 0.00 0.00 0.00 57 1011.6
20211017102359 53 95 0.0 0.0 0.00 0.00 0.00 57 1011.6
20211017102257 53 95 0.0 0.0 0.00 0.00 0.00 57 1011.6
20211017102157 53 95 0.0 0.0 0.00 0.00 0.00 59 1011.7
20211017102057 53 95 0.0 0.0 0.00 0.00 0.00 57 1011.7
20211017102013 53 95 0.0 0.0 0.00 0.00 0.00 55 1011.6
20211017101856 53 95 0.0 0.9 0.00 0.00 0.00 55 1011.7
20211017101755 53 95 0.0 0.9 0.00 0.00 0.00 56 1011.7
20211017101656 53 95 0.0 0.9 0.00 0.00 0.00 56 1011.7
20211017101551 53 95 0.0 0.9 0.00 0.00 0.00 56 1011.7
20211017101505 53 95 0.0 0.9 0.00 0.00 0.00 56 1011.7
20211017101347 53 95 0.0 1.7 0.00 0.00 0.00 57 1011.7
20211017101247 53 95 0.0 1.7 0.00 0.00 0.00 57 1011.7
20211017101146 53 95 0.9 1.7 0.00 0.00 0.00 57 1011.8
20211017101045 53 95 0.9 1.7 0.00 0.00 0.00 57 1011.8
20211017100959 53 95 0.9 1.7 0.00 0.00 0.00 57 1011.7
20211017100843 53 95 0.9 1.7 0.00 0.00 0.00 57 1011.7
20211017100740 53 95 0.9 1.7 0.00 0.00 0.00 58 1011.7
20211017100640 53 95 0.9 1.7 0.00 0.00 0.00 58 1011.7
20211017100539 53 95 0.9 1.7 0.00 0.00 0.00 58 1011.7
20211017100453 53 95 0.0 1.7 0.00 0.00 0.00 59 1011.7
20211017100340 53 96 0.0 0.9 0.00 0.00 0.00 58 1011.7
20211017100238 53 96 0.0 0.9 0.00 0.00 0.00 58 1011.7
20211017100138 53 96 0.0 0.9 0.00 0.00 0.00 58 1011.7
20211017100036 53 96 0.0 0.9 0.00 0.00 0.00 58 1011.7
20211017095948 53 104 0.0 0.9 0.00 0.00 0.00 59 1011.7
20211017095829 53 135 0.0 0.9 0.00 0.00 0.00 61 1011.8
20211017095734 53 142 0.0 0.9 0.00 0.00 0.00 62 1011.8
20211017095627 52 142 0.0 0.9 0.00 0.00 0.00 62 1011.8
20211017095527 52 143 0.0 0.9 0.00 0.00 0.00 61 1011.8
20211017095440 52 142 0.0 0.0 0.00 0.00 0.00 61 1011.8
20211017095323 52 179 0.0 0.0 0.00 0.00 0.00 61 1011.8
20211017095223 52 180 0.0 0.0 0.00 0.00 0.00 59 1011.8
20211017095123 52 180 0.0 0.0 0.00 0.00 0.00 58 1011.9
20211017095023 52 180 0.0 0.0 0.00 0.00 0.00 59 1011.9
20211017094934 52 179 0.0 0.0 0.00 0.00 0.00 59 1011.8
20211017094815 52 179 0.0 0.0 0.00 0.00 0.00 59 1011.9
20211017094715 52 179 0.0 0.0 0.00 0.00 0.00 60 1011.9
20211017094615 52 181 0.0 0.0 0.00 0.00 0.00 60 1011.9
20211017094516 52 181 0.0 0.0 0.00 0.00 0.00 62 1011.9
20211017094429 52 180 0.0 0.0 0.00 0.00 0.00 62 1011.9
20211017094312 52 179 0.0 0.0 0.00 0.00 0.00 61 1011.9
20211017094212 52 179 0.0 0.0 0.00 0.00 0.00 62 1011.9
20211017094112 52 180 0.0 0.0 0.00 0.00 0.00 62 1011.9
20211017094013 52 179 0.0 0.0 0.00 0.00 0.00 63 1011.9
20211017093923 52 180 0.0 0.0 0.00 0.00 0.00 63 1011.9
20211017093806 52 179 0.0 0.0 0.00 0.00 0.00 64 1011.9
20211017093703 52 179 0.0 0.0 0.00 0.00 0.00 64 1011.9
20211017093603 52 179 0.0 0.0 0.00 0.00 0.00 64 1011.9
20211017093503 52 180 0.0 0.0 0.00 0.00 0.00 65 1011.9
20211017093406 52 179 0.0 0.0 0.00 0.00 0.00 65 1011.8
20211017093257 52 179 0.0 0.0 0.00 0.00 0.00 65 1011.8
20211017093157 52 180 0.0 0.0 0.00 0.00 0.00 65 1011.9
20211017093057 52 180 0.0 0.0 0.00 0.00 0.00 65 1011.9
20211017092957 52 179 0.0 0.0 0.00 0.00 0.00 64 1011.9
20211017092858 52 180 0.0 0.0 0.00 0.00 0.00 64 1011.9
20211017092754 52 179 0.0 0.0 0.00 0.00 0.00 61 1011.9
20211017092653 53 179 0.0 0.0 0.00 0.00 0.00 61 1011.9
20211017092555 53 179 0.0 0.0 0.00 0.00 0.00 61 1012.0
20211017092453 53 180 0.0 0.0 0.00 0.00 0.00 60 1012.0
20211017092352 53 179 0.0 0.0 0.00 0.00 0.00 61 1012.0
20211017092247 53 179 0.0 0.0 0.00 0.00 0.00 60 1012.0
20211017092145 53 180 0.0 0.0 0.00 0.00 0.00 59 1012.0
20211017092046 53 181 0.0 0.0 0.00 0.00 0.00 60 1012.0
20211017091946 53 180 0.0 0.0 0.00 0.00 0.00 61 1012.0
20211017091846 53 179 0.0 0.0 0.00 0.00 0.00 63 1012.0
20211017091739 53 180 0.0 0.0 0.00 0.00 0.00 62 1012.0
20211017091639 53 179 0.0 0.0 0.00 0.00 0.00 60 1012.0
20211017091539 53 179 0.0 0.0 0.00 0.00 0.00 59 1012.1
20211017091441 53 181 0.0 0.0 0.00 0.00 0.00 59 1012.1
20211017091340 53 179 0.0 0.0 0.00 0.00 0.00 59 1012.1
20211017091239 53 179 0.0 0.0 0.00 0.00 0.00 58 1012.1
20211017091137 53 179 0.0 0.0 0.00 0.00 0.00 60 1012.1
20211017091037 53 179 0.0 0.0 0.00 0.00 0.00 60 1012.1
20211017090936 53 179 0.0 0.0 0.00 0.00 0.00 58 1012.1
20211017090835 53 179 0.0 0.0 0.00 0.00 0.00 59 1012.1
20211017090727 53 179 0.0 0.0 0.00 0.00 0.00 59 1012.1
20211017090627 53 179 0.0 0.0 0.00 0.00 0.00 60 1012.2
20211017090527 53 181 0.0 0.0 0.00 0.00 0.00 60 1012.1
20211017090427 53 181 0.0 0.0 0.00 0.00 0.00 61 1012.1
20211017090328 53 179 0.0 0.0 0.00 0.00 0.00 61 1012.2
20211017090228 53 179 0.0 0.0 0.00 0.00 0.00 63 1012.1
20211017090126 53 180 0.0 0.0 0.00 0.00 0.00 64 1012.2
20211017090037 53 179 0.0 0.0 0.00 0.00 0.00 63 1012.2
20211017085924 53 181 0.0 0.0 0.00 0.00 0.00 60 1012.1
20211017085823 53 180 0.0 0.0 0.00 0.00 0.00 63 1012.1
20211017085718 53 180 0.0 0.0 0.00 0.00 0.00 61 1012.2
20211017085615 53 180 0.0 0.0 0.00 0.00 0.00 63 1012.2
20211017085515 53 180 0.0 0.0 0.00 0.00 0.00 63 1012.2
20211017085416 53 180 0.0 0.0 0.00 0.00 0.00 62 1012.2
20211017085317 53 180 0.0 0.0 0.00 0.00 0.00 62 1012.2
20211017085213 53 179 0.0 0.0 0.00 0.00 0.00 61 1012.2
20211017085114 53 181 0.0 0.0 0.00 0.00 0.00 63 1012.1
20211017085014 53 180 0.0 0.0 0.00 0.00 0.00 64 1012.2
20211017084912 53 180 0.0 0.0 0.00 0.00 0.00 63 1012.2
20211017084812 53 180 0.0 0.0 0.00 0.00 0.00 62 1012.2
20211017084707 53 180 0.0 0.0 0.00 0.00 0.00 61 1012.2
20211017084608 53 180 0.0 0.0 0.00 0.00 0.00 58 1012.2
20211017084507 53 179 0.0 0.0 0.00 0.00 0.00 58 1012.2
20211017084406 53 180 0.0 0.0 0.00 0.00 0.00 61 1012.2
20211017084304 53 179 0.0 0.0 0.00 0.00 0.00 59 1012.3
20211017084157 53 181 0.0 0.0 0.00 0.00 0.00 57 1012.2
20211017084057 53 180 0.0 0.0 0.00 0.00 0.00 56 1012.2
20211017083957 53 181 0.0 0.0 0.00 0.00 0.00 56 1012.3
20211017083857 53 180 0.0 0.0 0.00 0.00 0.00 57 1012.2
20211017083758 53 180 0.0 0.0 0.00 0.00 0.00 58 1012.2
20211017083656 54 181 0.0 0.0 0.00 0.00 0.00 58 1012.3
20211017083555 54 181 0.0 0.0 0.00 0.00 0.00 58 1012.3
20211017083455 54 180 0.0 0.0 0.00 0.00 0.00 56 1012.3
20211017083354 54 180 0.0 0.0 0.00 0.00 0.00 56 1012.3
20211017083253 54 180 0.0 0.0 0.00 0.00 0.00 57 1012.3
20211017083147 54 180 0.0 0.0 0.00 0.00 0.00 58 1012.3
20211017083047 54 180 0.0 0.0 0.00 0.00 0.00 57 1012.3
20211017082947 54 180 0.0 0.0 0.00 0.00 0.00 58 1012.3
20211017082848 54 181 0.0 0.0 0.00 0.00 0.00 57 1012.3
20211017082745 54 180 0.0 0.0 0.00 0.00 0.00 57 1012.4
20211017082645 54 180 0.0 0.0 0.00 0.00 0.00 57 1012.4
20211017082545 54 181 0.0 0.0 0.00 0.00 0.00 57 1012.4
20211017082444 53 181 0.0 0.0 0.00 0.00 0.00 57 1012.4
20211017082343 53 180 0.0 0.0 0.00 0.00 0.00 58 1012.4
20211017082246 53 179 0.0 0.0 0.00 0.00 0.00 58 1012.4
20211017082236 53 180 0.0 0.0 0.00 0.00 0.00 58 1012.4
20211017082144 53 179 0.0 0.0 0.00 0.00 0.00 59 1012.4
20211017082041 53 180 0.0 0.0 0.00 0.00 0.00 59 1012.3
20211017081939 53 180 0.0 0.0 0.00 0.00 0.00 58 1012.4
20211017081839 53 181 0.0 0.0 0.00 0.00 0.00 59 1012.3
20211017081730 53 180 0.0 0.0 0.00 0.00 0.00 59 1012.3
20211017081637 53 180 0.0 0.0 0.00 0.00 0.00 59 1012.3
20211017081535 53 180 0.0 0.0 0.00 0.00 0.00 59 1012.4
20211017081436 53 181 0.0 0.0 0.00 0.00 0.00 60 1012.4
20211017081333 53 179 0.0 0.0 0.00 0.00 0.00 61 1012.4
20211017081225 53 180 0.0 0.0 0.00 0.00 0.00 63 1012.4
20211017081134 53 180 0.0 0.0 0.00 0.00 0.00 63 1012.4
20211017081034 53 180 0.0 0.0 0.00 0.00 0.00 63 1012.4
20211017080933 53 181 0.0 0.0 0.00 0.00 0.00 63 1012.4
20211017080832 53 180 0.0 0.0 0.00 0.00 0.00 62 1012.4
20211017080736 53 179 0.0 0.0 0.00 0.00 0.00 63 1012.4
20211017080725 53 180 0.0 0.0 0.00 0.00 0.00 63 1012.4
20211017080629 54 180 0.0 0.0 0.00 0.00 0.00 63 1012.4
20211017080529 54 180 0.0 0.0 0.00 0.00 0.00 63 1012.3
20211017080430 54 179 0.0 0.0 0.00 0.00 0.00 63 1012.3
20211017080329 54 179 0.0 0.0 0.00 0.00 0.00 63 1012.3
20211017080233 54 179 0.0 0.0 0.00 0.00 0.00 63 1012.3
20211017080223 54 180 0.0 0.0 0.00 0.00 0.00 63 1012.3
20211017080127 54 180 0.0 0.0 0.00 0.00 0.00 62 1012.3
20211017080025 54 180 0.0 0.0 0.00 0.00 0.00 63 1012.4
20211017075926 54 181 0.0 0.0 0.00 0.00 0.00 63 1012.4
20211017075826 54 181 0.0 0.0 0.00 0.00 0.00 62 1012.4
20211017075727 54 180 0.0 0.0 0.00 0.00 0.00 63 1012.3
20211017075626 54 180 0.0 0.0 0.00 0.00 0.00 63 1012.4
20211017075526 54 181 0.0 0.0 0.00 0.00 0.00 62 1012.4
20211017075424 54 179 0.0 0.0 0.00 0.00 0.00 62 1012.4
20211017075324 54 181 0.0 0.0 0.00 0.00 0.00 61 1012.4
20211017075228 54 179 0.0 0.0 0.00 0.00 0.00 61 1012.4
20211017075222 54 180 0.0 0.0 0.00 0.00 0.00 61 1012.4
20211017075122 55 180 0.0 0.0 0.00 0.00 0.00 59 1012.4
20211017075020 55 181 0.0 0.0 0.00 0.00 0.00 60 1012.4
20211017074915 55 179 0.0 0.0 0.00 0.00 0.00 60 1012.4
20211017074814 55 181 0.0 0.0 0.00 0.00 0.00 60 1012.4
20211017074723 55 181 0.0 0.0 0.00 0.00 0.00 59 1012.4
20211017074714 55 180 0.0 0.0 0.00 0.00 0.00 59 1012.4
20211017074614 55 181 0.0 0.0 0.00 0.00 0.00 60 1012.4
20211017074516 55 180 0.0 0.0 0.00 0.00 0.00 59 1012.4
20211017074410 55 181 0.0 0.0 0.00 0.00 0.00 59 1012.4
20211017074309 55 180 0.0 0.0 0.00 0.00 0.00 59 1012.4
20211017074211 55 180 0.0 0.0 0.00 0.00 0.00 59 1012.4
20211017074110 55 180 0.0 0.0 0.00 0.00 0.00 58 1012.4
20211017074012 55 180 0.0 0.0 0.00 0.00 0.00 58 1012.4
20211017073905 55 181 0.0 0.0 0.00 0.00 0.00 60 1012.4
20211017073805 55 181 0.0 0.0 0.00 0.00 0.00 60 1012.4
20211017073721 55 179 0.0 0.0 0.00 0.00 0.00 59 1012.4
20211017073705 55 181 0.0 0.0 0.00 0.00 0.00 59 1012.4
20211017073604 55 179 0.0 0.0 0.00 0.00 0.00 58 1012.4
20211017073503 55 181 0.0 0.0 0.00 0.00 0.00 58 1012.4
20211017073358 55 181 0.0 0.0 0.00 0.00 0.00 58 1012.4
20211017073256 55 181 0.0 0.0 0.00 0.00 0.00 57 1012.4
20211017073221 55 181 0.0 0.0 0.00 0.00 0.00 57 1012.5
20211017073155 55 180 0.0 0.9 0.00 0.00 0.00 57 1012.5
20211017073055 56 180 0.0 0.9 0.00 0.00 0.00 57 1012.4
20211017072955 56 180 0.0 0.9 0.00 0.00 0.00 55 1012.4
20211017072851 56 180 0.0 0.9 0.00 0.00 0.00 55 1012.5
20211017072720 56 180 0.0 0.9 0.00 0.00 0.00 54 1012.4
20211017072650 56 180 0.0 0.9 0.00 0.00 0.00 54 1012.4
20211017072550 56 180 0.0 0.9 0.00 0.00 0.00 55 1012.5
20211017072449 56 181 0.0 0.9 0.00 0.00 0.00 55 1012.5
20211017072343 56 181 0.0 0.9 0.00 0.00 0.00 55 1012.5
20211017072244 56 180 0.0 0.9 0.00 0.00 0.00 56 1012.5
20211017072221 56 180 0.0 0.9 0.00 0.00 0.00 55 1012.5
20211017072144 56 180 0.0 0.0 0.00 0.00 0.00 55 1012.5
20211017072044 56 105 0.0 0.0 0.00 0.00 0.00 56 1012.5
20211017071942 56 105 0.0 0.0 0.00 0.00 0.00 55 1012.5
20211017071835 56 106 0.0 0.0 0.00 0.00 0.00 55 1012.5
20211017071719 56 105 0.0 0.9 0.00 0.00 0.00 55 1012.4
20211017071636 56 105 0.0 0.9 0.00 0.00 0.00 55 1012.4
20211017071535 56 106 0.0 0.9 0.00 0.00 0.00 55 1012.4
20211017071434 56 106 0.0 0.9 0.00 0.00 0.00 56 1012.5
20211017071331 56 105 0.0 0.9 0.00 0.00 0.00 55 1012.5
20211017071218 56 106 0.0 0.9 0.00 0.00 0.00 55 1012.5
20211017071130 56 106 0.0 0.9 0.00 0.00 0.00 56 1012.5
20211017071030 56 105 0.0 0.9 0.00 0.00 0.00 56 1012.5
20211017070929 57 106 0.0 0.9 0.00 0.00 0.00 57 1012.4
20211017070823 56 106 0.0 0.9 0.00 0.00 0.00 55 1012.5
20211017070719 56 105 0.0 0.9 0.00 0.00 0.00 55 1012.4
20211017070624 57 106 0.0 0.0 0.00 0.00 0.00 55 1012.4
20211017070524 57 105 0.0 0.0 0.00 0.00 0.00 55 1012.4
20211017070423 57 105 0.0 0.0 0.00 0.00 0.00 55 1012.4
20211017070323 57 106 0.0 0.0 0.00 0.00 0.00 55 1012.4
20211017070229 57 106 0.0 0.0 0.00 0.00 0.00 55 1012.4
20211017070219 57 105 0.0 0.0 0.00 0.00 0.00 55 1012.4
20211017070127 57 105 0.0 0.0 0.00 0.00 0.00 54 1012.5
20211017070024 57 106 0.0 0.9 0.00 0.00 0.00 55 1012.5
20211017065924 57 105 0.0 0.9 0.00 0.00 0.00 54 1012.5
20211017065820 57 106 0.0 0.9 0.00 0.00 0.00 54 1012.5
20211017065720 58 106 0.0 0.9 0.00 0.00 0.00 54 1012.5
20211017065621 58 106 0.0 0.9 0.00 0.00 0.00 53 1012.5
20211017065520 58 105 0.0 0.9 0.00 0.00 0.00 53 1012.5
20211017065421 58 106 0.0 0.9 0.00 0.00 0.00 53 1012.5
20211017065319 58 105 0.0 0.9 0.00 0.00 0.00 54 1012.5
20211017065223 58 105 0.0 0.9 0.00 0.00 0.00 54 1012.4
20211017065115 58 106 0.0 0.0 0.00 0.00 0.00 54 1012.4
20211017065016 58 106 0.0 0.9 0.00 0.00 0.00 54 1012.4
20211017064916 58 105 0.0 0.9 0.00 0.00 0.00 55 1012.4
20211017064816 58 106 0.0 0.9 0.00 0.00 0.00 54 1012.4
20211017064718 58 105 0.0 0.9 0.00 0.00 0.00 54 1012.5
20211017064616 58 106 0.0 0.9 0.00 0.00 0.00 55 1012.4
20211017064517 58 106 0.0 0.9 0.00 0.00 0.00 55 1012.4
20211017064416 58 106 0.0 0.9 0.00 0.00 0.00 55 1012.5
20211017064315 58 106 0.0 0.9 0.00 0.00 0.00 55 1012.5
20211017064217 58 105 0.0 0.9 0.00 0.00 0.00 55 1012.5
20211017064115 58 105 0.0 0.9 0.00 0.00 0.00 55 1012.5
20211017064015 58 105 0.0 0.9 0.00 0.00 0.00 54 1012.5
20211017063915 58 105 0.0 0.9 0.00 0.00 0.00 54 1012.5
20211017063815 58 105 0.0 0.9 0.00 0.00 0.00 54 1012.5
20211017063718 58 104 0.0 1.7 0.00 0.00 0.00 54 1012.5
20211017063616 58 105 0.0 1.7 0.00 0.00 0.00 55 1012.6
20211017063515 58 104 0.0 1.7 0.00 0.00 0.00 55 1012.5
20211017063416 58 105 0.0 1.7 0.00 0.00 0.00 54 1012.5
20211017063316 58 105 0.0 1.7 0.00 0.00 0.00 54 1012.5
20211017063212 58 104 0.0 1.7 0.00 0.00 0.00 54 1012.6
20211017063112 58 105 0.0 1.7 0.00 0.00 0.00 54 1012.6
20211017063012 58 105 0.0 1.7 0.00 0.00 0.00 54 1012.6
20211017062912 58 104 0.0 1.7 0.00 0.00 0.00 54 1012.6
20211017062812 58 105 0.0 1.7 0.00 0.00 0.00 54 1012.7
20211017062712 58 105 0.0 0.9 0.00 0.00 0.00 54 1012.7
20211017062613 58 104 0.0 0.0 0.00 0.00 0.00 54 1012.6
20211017062513 58 105 0.0 0.0 0.00 0.00 0.00 54 1012.6
20211017062411 58 104 0.0 0.0 0.00 0.00 0.00 54 1012.6
20211017062312 58 105 0.0 0.0 0.00 0.00 0.00 54 1012.6
20211017062217 58 105 0.0 0.0 0.00 0.00 0.00 53 1012.5
20211017062211 59 105 0.0 0.0 0.00 0.00 0.00 53 1012.5
20211017062112 59 105 0.0 0.0 0.00 0.00 0.00 53 1012.6
20211017062012 59 105 0.0 0.0 0.00 0.00 0.00 54 1012.6
20211017061913 59 105 0.0 0.0 0.00 0.00 0.00 53 1012.6
20211017061812 59 105 0.0 0.0 0.00 0.00 0.00 53 1012.5
20211017061712 59 105 0.0 0.9 0.00 0.00 0.00 54 1012.6
20211017061612 59 105 0.0 0.9 0.00 0.00 0.00 53 1012.6
20211017061515 59 105 0.0 0.9 0.00 0.00 0.00 53 1012.6
20211017061412 59 104 0.0 0.9 0.00 0.00 0.00 53 1012.6
20211017061308 59 105 0.0 0.9 0.00 0.00 0.00 53 1012.7
20211017061207 59 105 0.0 0.9 0.00 0.00 0.00 53 1012.7
20211017061108 59 105 0.0 0.9 0.00 0.00 0.00 52 1012.7
20211017061013 59 105 0.0 0.9 0.00 0.00 0.00 52 1012.7
20211017060909 60 104 0.0 0.9 0.00 0.00 0.00 53 1012.7
20211017060808 60 104 0.0 0.9 0.00 0.00 0.00 53 1012.7
20211017060707 60 105 0.0 0.9 0.00 0.00 0.00 53 1012.7
20211017060607 60 105 0.0 0.9 0.00 0.00 0.00 53 1012.6
20211017060508 60 105 0.0 0.9 0.00 0.00 0.00 53 1012.6
20211017060408 60 105 0.0 0.9 0.00 0.00 0.00 53 1012.6
20211017060308 60 105 0.0 0.9 0.00 0.00 0.00 53 1012.6
20211017060214 60 105 0.0 0.9 0.00 0.00 0.00 52 1012.6
20211017060209 60 104 0.0 0.9 0.00 0.00 0.00 52 1012.6
20211017060108 60 104 0.0 0.9 0.00 0.00 0.00 53 1012.6
20211017060016 60 105 0.0 0.9 0.00 0.00 0.00 52 1012.6
20211017055908 60 105 0.0 0.9 0.00 0.00 0.00 53 1012.6
20211017055808 60 105 0.0 0.9 0.00 0.00 0.00 52 1012.6
20211017055707 60 105 0.0 0.9 0.00 0.00 0.00 52 1012.6
20211017055608 60 105 0.0 0.9 0.00 0.00 0.00 52 1012.6
20211017055507 60 105 0.0 1.7 0.00 0.00 0.00 52 1012.6
20211017055403 60 105 0.0 1.7 0.00 0.00 0.00 51 1012.6
20211017055306 60 105 0.9 1.7 0.00 0.00 0.00 52 1012.7
20211017055210 60 105 0.9 1.7 0.00 0.00 0.00 52 1012.7
20211017055204 60 105 0.9 1.7 0.00 0.00 0.00 52 1012.7
20211017055104 61 105 0.9 1.7 0.00 0.00 0.00 52 1012.6
20211017055004 61 105 0.9 1.7 0.00 0.00 0.00 52 1012.7
20211017054903 61 105 0.9 1.7 0.00 0.00 0.00 51 1012.7
20211017054804 61 105 0.9 1.7 0.00 0.00 0.00 51 1012.7
20211017054711 61 105 0.9 1.7 0.00 0.00 0.00 51 1012.7
20211017054704 61 105 0.9 1.7 0.00 0.00 0.00 51 1012.7
20211017054604 61 105 0.9 1.7 0.00 0.00 0.00 51 1012.7
20211017054510 61 91 0.9 1.7 0.00 0.00 0.00 51 1012.7
20211017054405 61 91 0.9 1.7 0.00 0.00 0.00 51 1012.7
20211017054305 61 90 0.9 1.7 0.00 0.00 0.00 51 1012.7
20211017054209 61 101 0.9 1.7 0.00 0.00 0.00 51 1012.7
20211017054203 61 100 0.9 1.7 0.00 0.00 0.00 51 1012.7
20211017054105 61 103 0.9 1.7 0.00 0.00 0.00 51 1012.7
20211017054004 61 91 0.9 1.7 0.00 0.00 0.00 51 1012.7
20211017053904 61 100 0.9 1.7 0.00 0.00 0.00 51 1012.7
20211017053804 61 101 0.9 1.7 0.00 0.00 0.00 51 1012.8
20211017053709 61 100 0.9 1.7 0.00 0.00 0.00 51 1012.7
20211017053704 61 100 0.9 1.7 0.00 0.00 0.00 51 1012.7
20211017053605 61 103 0.9 1.7 0.00 0.00 0.00 51 1012.8
20211017053500 61 105 0.9 1.7 0.00 0.00 0.00 51 1012.8
20211017053402 61 102 0.9 1.7 0.00 0.00 0.00 51 1012.7
20211017053301 61 102 0.9 1.7 0.00 0.00 0.00 51 1012.7
20211017053209 61 104 0.9 1.7 0.00 0.00 0.00 51 1012.7
20211017053159 61 103 0.9 1.7 0.00 0.00 0.00 51 1012.7
20211017053101 61 103 0.9 1.7 0.00 0.00 0.00 51 1012.7
20211017053000 61 103 0.9 3.5 0.00 0.00 0.00 51 1012.7
20211017052901 61 107 0.9 3.5 0.00 0.00 0.00 52 1012.7
20211017052800 61 103 0.9 3.5 0.00 0.00 0.00 52 1012.7
20211017052709 61 74 1.7 3.5 0.00 0.00 0.00 52 1012.7
20211017052702 61 74 1.7 3.5 0.00 0.00 0.00 52 1012.7
20211017052559 61 72 1.7 3.5 0.00 0.00 0.00 52 1012.7
20211017052500 61 72 0.9 3.5 0.00 0.00 0.00 52 1012.7
20211017052401 61 72 0.9 3.5 0.00 0.00 0.00 52 1012.7
20211017052259 61 90 0.9 3.5 0.00 0.00 0.00 52 1012.7
20211017052209 61 93 0.9 3.5 0.00 0.00 0.00 52 1012.7
20211017052159 61 94 0.9 3.5 0.00 0.00 0.00 52 1012.7
20211017052100 61 86 0.9 3.5 0.00 0.00 0.00 53 1012.7
20211017052000 61 102 0.9 2.6 0.00 0.00 0.00 53 1012.7
20211017051900 61 94 0.0 2.6 0.00 0.00 0.00 55 1012.7
20211017051800 61 75 0.0 2.6 0.00 0.00 0.00 54 1012.7
20211017051705 60 101 0.0 1.7 0.00 0.00 0.00 54 1012.7
20211017051700 60 101 0.0 1.7 0.00 0.00 0.00 54 1012.7
20211017051556 60 123 0.0 1.7 0.00 0.00 0.00 56 1012.7
20211017051456 60 127 0.0 0.9 0.00 0.00 0.00 55 1012.7
20211017051357 60 127 0.0 0.9 0.00 0.00 0.00 57 1012.7
20211017051256 60 127 0.0 0.9 0.00 0.00 0.00 56 1012.7
20211017051206 60 127 0.0 0.9 0.00 0.00 0.00 55 1012.7
20211017051156 60 127 0.0 0.9 0.00 0.00 0.00 55 1012.7
20211017051056 60 127 0.0 0.0 0.00 0.00 0.00 56 1012.7
20211017050956 61 127 0.0 0.0 0.00 0.00 0.00 57 1012.7
20211017050856 61 127 0.0 0.0 0.00 0.00 0.00 56 1012.7
20211017050756 61 127 0.0 0.0 0.00 0.00 0.00 56 1012.7
20211017050705 60 127 0.0 0.0 0.00 0.00 0.00 55 1012.7
20211017050656 60 127 0.0 0.0 0.00 0.00 0.00 55 1012.7
20211017050555 60 127 0.0 0.0 0.00 0.00 0.00 54 1012.7
20211017050457 60 127 0.0 0.0 0.00 0.00 0.00 54 1012.8
20211017050356 60 127 0.0 0.0 0.00 0.00 0.00 54 1012.7
20211017050259 60 127 0.0 0.0 0.00 0.00 0.00 54 1012.7
20211017050205 60 127 0.0 0.0 0.00 0.00 0.00 54 1012.8
20211017050156 60 127 0.0 0.0 0.00 0.00 0.00 54 1012.8
20211017050056 60 127 0.0 0.0 0.00 0.00 0.00 54 1012.7
20211017045955 60 127 0.0 0.0 0.00 0.00 0.00 54 1012.6
20211017045855 60 127 0.0 0.0 0.00 0.00 0.00 53 1012.6
20211017045756 60 127 0.0 0.0 0.00 0.00 0.00 53 1012.6
20211017045705 61 127 0.0 0.0 0.00 0.00 0.00 52 1012.7
20211017045651 61 127 0.0 0.0 0.00 0.00 0.00 52 1012.7
20211017045553 61 127 0.0 0.0 0.00 0.00 0.00 52 1012.6
20211017045452 61 127 0.0 0.0 0.00 0.00 0.00 52 1012.6
20211017045352 61 127 0.0 0.0 0.00 0.00 0.00 53 1012.6
20211017045252 61 127 0.0 0.0 0.00 0.00 0.00 53 1012.6
20211017045205 61 127 0.0 0.0 0.00 0.00 0.00 53 1012.6
20211017045152 61 127 0.0 0.0 0.00 0.00 0.00 53 1012.6
20211017045051 61 127 0.0 0.0 0.00 0.00 0.00 53 1012.6
20211017044951 61 127 0.0 0.0 0.00 0.00 0.00 52 1012.5
20211017044851 62 127 0.0 0.0 0.00 0.00 0.00 52 1012.6
20211017044751 62 127 0.0 0.0 0.00 0.00 0.00 52 1012.5
20211017044705 62 127 0.0 0.0 0.00 0.00 0.00 53 1012.5
20211017044652 62 127 0.0 0.0 0.00 0.00 0.00 53 1012.5
20211017044551 62 127 0.0 0.0 0.00 0.00 0.00 53 1012.5
20211017044452 62 127 0.0 0.0 0.00 0.00 0.00 52 1012.5
20211017044352 61 127 0.0 0.0 0.00 0.00 0.00 53 1012.5
20211017044251 61 127 0.0 0.0 0.00 0.00 0.00 53 1012.5
20211017044205 61 127 0.0 0.0 0.00 0.00 0.00 54 1012.5
20211017044152 61 127 0.0 0.0 0.00 0.00 0.00 54 1012.5
20211017044052 61 127 0.0 0.0 0.00 0.00 0.00 53 1012.5
20211017043951 61 127 0.0 0.0 0.00 0.00 0.00 54 1012.5
20211017043852 61 127 0.0 0.0 0.00 0.00 0.00 54 1012.5
20211017043748 61 127 0.0 0.0 0.00 0.00 0.00 53 1012.4
20211017043705 61 127 0.0 0.0 0.00 0.00 0.00 53 1012.5
20211017043648 61 127 0.0 0.0 0.00 0.00 0.00 53 1012.5
20211017043548 61 127 0.0 0.0 0.00 0.00 0.00 53 1012.5
20211017043447 61 127 0.0 0.0 0.00 0.00 0.00 53 1012.5
20211017043348 61 127 0.0 0.0 0.00 0.00 0.00 53 1012.5
20211017043247 61 127 0.0 0.0 0.00 0.00 0.00 54 1012.5
20211017043148 61 127 0.0 0.0 0.00 0.00 0.00 54 1012.4
20211017043048 61 127 0.0 0.0 0.00 0.00 0.00 55 1012.5
20211017042947 61 127 0.0 0.9 0.00 0.00 0.00 56 1012.5
20211017042848 61 127 0.0 0.9 0.00 0.00 0.00 56 1012.4
20211017042748 61 127 0.0 0.9 0.00 0.00 0.00 57 1012.4
20211017042648 61 127 0.0 0.9 0.00 0.00 0.00 56 1012.4
20211017042548 61 127 0.0 0.9 0.00 0.00 0.00 56 1012.4
20211017042448 61 127 0.0 0.9 0.00 0.00 0.00 56 1012.4
20211017042348 61 127 0.0 0.9 0.00 0.00 0.00 57 1012.4
20211017042247 62 127 0.0 0.9 0.00 0.00 0.00 56 1012.4
20211017042147 62 127 0.0 0.9 0.00 0.00 0.00 56 1012.4
20211017042047 62 127 0.0 0.9 0.00 0.00 0.00 56 1012.4
20211017041949 62 127 0.0 0.9 0.00 0.00 0.00 56 1012.4
20211017041844 62 127 0.0 0.9 0.00 0.00 0.00 56 1012.4
20211017041747 62 230 0.0 0.9 0.00 0.00 0.00 55 1012.4
20211017041702 62 229 0.0 0.9 0.00 0.00 0.00 55 1012.4
20211017041644 62 229 0.0 0.9 0.00 0.00 0.00 54 1012.3
20211017041544 62 229 0.0 0.9 0.00 0.00 0.00 54 1012.3
20211017041445 62 229 0.0 0.9 0.00 0.00 0.00 54 1012.3
20211017041344 62 229 0.0 0.9 0.00 0.00 0.00 54 1012.3
20211017041243 62 229 0.0 0.9 0.00 0.00 0.00 54 1012.3
20211017041143 62 229 0.0 0.9 0.00 0.00 0.00 54 1012.3
20211017041044 62 229 0.0 0.9 0.00 0.00 0.00 55 1012.3
20211017040944 62 229 0.0 0.9 0.00 0.00 0.00 54 1012.2
20211017040844 62 229 0.0 0.9 0.00 0.00 0.00 54 1012.3
20211017040744 62 229 0.0 0.0 0.00 0.00 0.00 55 1012.3
20211017040644 62 229 0.0 0.0 0.00 0.00 0.00 55 1012.3
20211017040545 62 229 0.0 0.0 0.00 0.00 0.00 54 1012.2
20211017040446 62 229 0.0 0.0 0.00 0.00 0.00 54 1012.3
20211017040343 62 229 0.0 0.0 0.00 0.00 0.00 55 1012.2
20211017040243 62 229 0.0 0.0 0.00 0.00 0.00 54 1012.3
20211017040143 62 229 0.0 0.0 0.00 0.00 0.00 55 1012.3
20211017040045 62 229 0.0 0.0 0.00 0.00 0.00 55 1012.3
20211017035940 62 229 0.0 0.0 0.00 0.00 0.00 55 1012.3
20211017035840 62 229 0.0 0.0 0.00 0.00 0.00 56 1012.3
20211017035740 62 229 0.0 0.0 0.00 0.00 0.00 56 1012.3
20211017035640 62 229 0.0 0.0 0.00 0.00 0.00 56 1012.3
20211017035545 62 229 0.0 0.0 0.00 0.00 0.00 56 1012.3
20211017035440 62 229 0.0 0.0 0.00 0.00 0.00 56 1012.3
20211017035347 62 229 0.0 0.0 0.00 0.00 0.00 56 1012.3
20211017035240 62 230 0.0 0.0 0.00 0.00 0.00 55 1012.3
20211017035202 62 229 0.0 0.0 0.00 0.00 0.00 55 1012.3
20211017035140 62 230 0.0 0.0 0.00 0.00 0.00 55 1012.2
20211017035040 63 229 0.0 0.0 0.00 0.00 0.00 55 1012.2
20211017034939 63 229 0.0 0.0 0.00 0.00 0.00 54 1012.2
20211017034841 63 229 0.0 0.0 0.00 0.00 0.00 54 1012.2
20211017034740 63 229 0.0 0.0 0.00 0.00 0.00 53 1012.2
20211017034640 63 229 0.0 0.0 0.00 0.00 0.00 54 1012.2
20211017034543 63 229 0.0 0.0 0.00 0.00 0.00 55 1012.2
20211017034441 63 229 0.0 0.0 0.00 0.00 0.00 54 1012.2
20211017034340 63 229 0.0 0.0 0.00 0.00 0.00 54 1012.1
20211017034239 63 229 0.0 0.0 0.00 0.00 0.00 54 1012.1
20211017034159 63 229 0.0 0.0 0.00 0.00 0.00 54 1012.1
20211017034142 63 229 0.0 0.0 0.00 0.00 0.00 54 1012.2
20211017034036 63 229 0.0 0.0 0.00 0.00 0.00 54 1012.2
20211017033936 63 229 0.0 0.0 0.00 0.00 0.00 54 1012.2
20211017033836 63 229 0.0 0.0 0.00 0.00 0.00 54 1012.2
20211017033736 63 229 0.0 0.0 0.00 0.00 0.00 54 1012.2
20211017033657 63 230 0.0 0.0 0.00 0.00 0.00 54 1012.2
20211017033636 63 229 0.0 0.0 0.00 0.00 0.00 54 1012.2
20211017033535 63 229 0.0 0.0 0.00 0.00 0.00 54 1012.2
20211017033437 63 229 0.0 0.0 0.00 0.00 0.00 54 1012.2
20211017033336 63 229 0.0 0.0 0.00 0.00 0.00 54 1012.2
20211017033237 63 229 0.0 0.0 0.00 0.00 0.00 53 1012.1
20211017033157 63 230 0.0 0.0 0.00 0.00 0.00 53 1012.1
20211017033136 63 229 0.0 0.0 0.00 0.00 0.00 53 1012.2
20211017033036 63 229 0.0 0.0 0.00 0.00 0.00 52 1012.2
20211017032936 63 229 0.0 0.0 0.00 0.00 0.00 52 1012.2
20211017032836 63 230 0.0 0.0 0.00 0.00 0.00 52 1012.2
20211017032735 63 229 0.0 0.0 0.00 0.00 0.00 51 1012.1
20211017032636 63 229 0.0 0.0 0.00 0.00 0.00 51 1012.1
20211017032536 63 229 0.0 0.0 0.00 0.00 0.00 51 1012.1
20211017032435 63 229 0.0 0.0 0.00 0.00 0.00 51 1012.1
20211017032335 63 229 0.0 0.0 0.00 0.00 0.00 52 1012.1
20211017032236 63 230 0.0 0.0 0.00 0.00 0.00 52 1012.1
20211017032132 63 229 0.0 0.0 0.00 0.00 0.00 52 1012.1
20211017032032 63 229 0.0 0.0 0.00 0.00 0.00 52 1012.1
20211017031933 64 230 0.0 0.0 0.00 0.00 0.00 52 1012.1
20211017031832 64 229 0.0 0.0 0.00 0.00 0.00 52 1012.1
20211017031733 64 229 0.0 0.0 0.00 0.00 0.00 50 1012.1
20211017031632 64 229 0.0 0.0 0.00 0.00 0.00 50 1012.1
20211017031532 64 229 0.0 0.0 0.00 0.00 0.00 51 1012.1
20211017031433 64 229 0.0 0.0 0.00 0.00 0.00 50 1012.1
20211017031332 64 229 0.0 0.0 0.00 0.00 0.00 50 1012.1
20211017031233 64 229 0.0 0.0 0.00 0.00 0.00 50 1012.1
20211017031157 64 230 0.0 0.0 0.00 0.00 0.00 50 1012.1
20211017031132 64 229 0.0 0.0 0.00 0.00 0.00 50 1012.1
20211017031032 64 229 0.0 0.0 0.00 0.00 0.00 50 1012.1
20211017030932 64 230 0.0 0.0 0.00 0.00 0.00 52 1012.0
20211017030832 64 229 0.0 0.0 0.00 0.00 0.00 52 1012.1
20211017030733 64 229 0.0 0.0 0.00 0.00 0.00 51 1012.0
20211017030657 64 230 0.0 0.0 0.00 0.00 0.00 51 1012.0
20211017030631 64 229 0.0 0.0 0.00 0.00 0.00 52 1012.0
20211017030532 64 229 0.0 0.0 0.00 0.00 0.00 51 1012.0
20211017030432 64 229 0.0 0.0 0.00 0.00 0.00 51 1012.0
20211017030332 64 229 0.0 0.0 0.00 0.00 0.00 50 1012.1
20211017030229 64 230 0.0 0.0 0.00 0.00 0.00 50 1012.0
20211017030153 64 229 0.0 0.0 0.00 0.00 0.00 50 1012.0
20211017030128 64 229 0.0 0.0 0.00 0.00 0.00 51 1012.0
20211017030032 65 229 0.0 0.0 0.00 0.00 0.00 51 1012.0
20211017025931 65 229 0.0 0.0 0.00 0.00 0.00 51 1012.0
20211017025828 65 229 0.0 0.0 0.00 0.00 0.00 51 1012.0
20211017025728 65 230 0.0 0.0 0.00 0.00 0.00 51 1012.0
20211017025653 65 229 0.0 0.0 0.00 0.00 0.00 51 1012.0
20211017025629 65 229 0.0 0.0 0.00 0.00 0.00 50 1012.0
20211017025528 65 229 0.0 0.0 0.00 0.00 0.00 50 1012.0
20211017025429 65 230 0.0 0.0 0.00 0.00 0.00 51 1012.0
20211017025328 65 229 0.0 0.0 0.00 0.00 0.00 50 1012.0
20211017025228 65 229 0.0 0.0 0.00 0.00 0.00 50 1012.0
20211017025153 65 229 0.0 0.0 0.00 0.00 0.00 50 1012.0
20211017025131 65 229 0.0 0.0 0.00 0.00 0.00 49 1012.0
20211017025028 65 229 0.0 0.0 0.00 0.00 0.00 49 1012.0
20211017024928 65 230 0.0 0.0 0.00 0.00 0.00 49 1012.0
20211017024828 65 229 0.0 0.0 0.00 0.00 0.00 49 1012.0
20211017024728 65 229 0.0 0.0 0.00 0.00 0.00 49 1012.0
20211017024653 65 230 0.0 0.0 0.00 0.00 0.00 49 1012.0
20211017024628 65 229 0.0 0.0 0.00 0.00 0.00 48 1012.0
20211017024528 65 229 0.0 0.0 0.00 0.00 0.00 47 1012.0
20211017024429 65 229 0.0 0.0 0.00 0.00 0.00 47 1012.0
20211017024323 65 229 0.0 0.0 0.00 0.00 0.00 47 1012.0
20211017024224 65 229 0.0 0.0 0.00 0.00 0.00 47 1011.9
20211017024153 65 229 0.0 0.0 0.00 0.00 0.00 47 1011.9
20211017024123 65 230 0.0 0.0 0.00 0.00 0.00 47 1012.0
20211017024025 66 229 0.0 0.0 0.00 0.00 0.00 48 1011.9
20211017023924 66 230 0.0 0.0 0.00 0.00 0.00 46 1011.9
20211017023824 66 229 0.0 0.0 0.00 0.00 0.00 46 1011.9
20211017023724 66 229 0.0 0.0 0.00 0.00 0.00 47 1011.9
20211017023654 66 229 0.0 0.0 0.00 0.00 0.00 47 1011.9
20211017023624 66 229 0.0 0.0 0.00 0.00 0.00 47 1012.0
20211017023524 66 229 0.0 0.0 0.00 0.00 0.00 49 1012.0
20211017023424 66 229 0.0 0.0 0.00 0.00 0.00 48 1011.9
20211017023324 66 229 0.0 0.0 0.00 0.00 0.00 48 1011.9
20211017023224 66 229 0.0 0.0 0.00 0.00 0.00 48 1012.0
20211017023153 66 230 0.0 0.0 0.00 0.00 0.00 47 1012.0
20211017023123 67 230 0.0 0.0 0.00 0.00 0.00 47 1012.0
20211017023024 67 229 0.0 0.0 0.00 0.00 0.00 46 1011.9
20211017022924 67 229 0.0 0.0 0.00 0.00 0.00 47 1011.9
20211017022823 67 229 0.0 0.0 0.00 0.00 0.00 46 1012.0
20211017022724 67 229 0.0 0.0 0.00 0.00 0.00 48 1012.0
20211017022654 67 229 0.0 0.0 0.00 0.00 0.00 48 1012.0
20211017022624 67 229 0.0 0.0 0.00 0.00 0.00 48 1011.9
20211017022525 67 229 0.0 0.0 0.00 0.00 0.00 47 1011.9
20211017022419 67 229 0.0 0.0 0.00 0.00 0.00 47 1011.9
20211017022320 67 229 0.0 0.0 0.00 0.00 0.00 47 1011.9
20211017022220 67 229 0.0 0.0 0.00 0.00 0.00 47 1011.9
20211017022153 67 229 0.0 0.0 0.00 0.00 0.00 47 1011.9
20211017022120 68 229 0.0 0.0 0.00 0.00 0.00 47 1011.9
20211017022023 68 229 0.0 0.0 0.00 0.00 0.00 47 1011.9
20211017021919 68 230 0.0 0.0 0.00 0.00 0.00 46 1011.9
20211017021819 68 229 0.0 0.0 0.00 0.00 0.00 46 1011.9
20211017021720 68 229 0.0 0.0 0.00 0.00 0.00 46 1011.9
20211017021650 68 229 0.0 0.0 0.00 0.00 0.00 46 1011.9
20211017021619 68 229 0.0 0.0 0.00 0.00 0.00 46 1011.9
20211017021522 68 229 0.0 0.0 0.00 0.00 0.00 45 1011.9
20211017021427 68 229 0.0 0.0 0.00 0.00 0.00 45 1011.8
20211017021320 68 229 0.0 0.0 0.00 0.00 0.00 45 1011.8
20211017021220 68 229 0.0 0.0 0.00 0.00 0.00 45 1011.8
20211017021119 68 229 0.0 0.0 0.00 0.00 0.00 45 1011.8
20211017021023 68 229 0.0 0.0 0.00 0.00 0.00 45 1011.8
20211017020920 68 229 0.0 0.0 0.00 0.00 0.00 46 1011.8
20211017020820 68 229 0.0 0.0 0.00 0.00 0.00 45 1011.8
20211017020721 69 229 0.0 0.0 0.00 0.00 0.00 44 1011.8
20211017020650 69 229 0.0 0.0 0.00 0.00 0.00 43 1011.8
20211017020621 69 229 0.0 0.0 0.00 0.00 0.00 44 1011.8
20211017020516 69 229 0.0 0.0 0.00 0.00 0.00 43 1011.8
20211017020417 69 229 0.0 0.0 0.00 0.00 0.00 42 1011.8
20211017020315 69 229 0.0 0.0 0.00 0.00 0.00 42 1011.8
20211017020216 69 229 0.0 0.0 0.00 0.00 0.00 42 1011.8
20211017020150 69 229 0.0 0.0 0.00 0.00 0.00 42 1011.8
20211017020116 70 229 0.0 0.0 0.00 0.00 0.00 42 1011.8
20211017020017 70 229 0.0 0.0 0.00 0.00 0.00 40 1011.8
20211017015916 70 229 0.0 0.0 0.00 0.00 0.00 41 1011.8
20211017015819 70 229 0.0 0.0 0.00 0.00 0.00 41 1011.8
20211017015716 70 229 0.0 0.0 0.00 0.00 0.00 41 1011.8
20211017015650 70 229 0.0 0.0 0.00 0.00 0.00 41 1011.8
20211017015616 71 229 0.0 0.0 0.00 0.00 0.00 41 1011.8
20211017015516 71 229 0.0 0.0 0.00 0.00 0.00 41 1011.8
20211017015416 71 229 0.0 0.0 0.00 0.00 0.00 40 1011.8
20211017015317 71 229 0.0 0.0 0.00 0.00 0.00 40 1011.8
20211017015225 71 229 0.0 0.0 0.00 0.00 0.00 39 1011.8
20211017015150 71 229 0.0 0.0 0.00 0.00 0.00 39 1011.8
20211017015121 71 229 0.0 0.0 0.00 0.00 0.00 39 1011.7
20211017015015 71 229 0.0 0.0 0.00 0.00 0.00 38 1011.7
20211017014916 71 229 0.0 0.0 0.00 0.00 0.00 37 1011.7
20211017014816 72 229 0.0 0.0 0.00 0.00 0.00 37 1011.7
20211017014716 72 229 0.0 0.0 0.00 0.00 0.00 37 1011.7
20211017014650 72 229 0.0 0.0 0.00 0.00 0.00 37 1011.7
20211017014612 72 229 0.0 0.0 0.00 0.00 0.00 37 1011.7
20211017014517 72 229 0.0 0.0 0.00 0.00 0.00 38 1011.7
20211017014411 73 229 0.0 0.0 0.00 0.00 0.00 36 1011.7
20211017014312 73 229 0.0 0.0 0.00 0.00 0.00 36 1011.7
20211017014218 73 229 0.0 0.0 0.00 0.00 0.00 36 1011.8
20211017014154 73 229 0.0 0.0 0.00 0.00 0.00 36 1011.8
20211017014122 73 229 0.0 0.0 0.00 0.00 0.00 36 1011.8
20211017014011 74 229 0.0 0.0 0.00 0.00 0.00 36 1011.8
20211017013917 74 229 0.0 0.0 0.00 0.00 0.00 35 1011.7
20211017013812 74 229 0.0 0.0 0.00 0.00 0.00 34 1011.7
20211017013718 74 229 0.0 0.0 0.00 0.00 0.00 35 1011.7
20211017013649 74 229 0.0 0.0 0.00 0.00 0.00 35 1011.7
20211017013613 75 229 0.0 0.0 0.00 0.00 0.00 34 1011.7
20211017013512 75 229 0.0 0.0 0.00 0.00 0.00 34 1011.7
20211017013412 75 229 0.0 0.0 0.00 0.00 0.00 34 1011.8
20211017013312 75 229 0.0 0.0 0.00 0.00 0.00 34 1011.7
20211017013212 76 229 0.0 0.0 0.00 0.00 0.00 33 1011.7
20211017013145 76 229 0.0 0.9 0.00 0.00 0.00 33 1011.7
20211017013111 76 229 0.0 0.9 0.00 0.00 0.00 33 1011.7
20211017013018 76 229 0.0 0.9 0.00 0.00 0.00 32 1011.7
20211017012917 76 229 0.0 0.9 0.00 0.00 0.00 32 1011.8
20211017012812 76 229 0.0 0.9 0.00 0.00 0.00 32 1011.7
20211017012714 77 229 0.0 1.7 0.00 0.00 0.00 32 1011.7
20211017012645 77 229 0.0 1.7 0.00 0.00 0.00 31 1011.7
20211017012609 77 229 0.0 1.7 0.00 0.00 0.00 31 1011.7
20211017012510 77 229 0.9 1.7 0.00 0.00 0.00 31 1011.7
20211017012408 77 229 0.9 1.7 0.00 0.00 0.00 30 1011.7
20211017012308 77 229 0.9 1.7 0.00 0.00 0.00 30 1011.7
20211017012208 77 229 0.9 1.7 0.00 0.00 0.00 29 1011.7
20211017012145 77 229 0.9 1.7 0.00 0.00 0.00 30 1011.7
20211017012108 77 229 0.9 1.7 0.00 0.00 0.00 30 1011.7
20211017012024 77 231 0.9 1.7 0.00 0.00 0.00 29 1011.7
20211017011910 77 225 0.9 1.7 0.00 0.00 0.00 29 1011.7
20211017011809 77 225 0.9 1.7 0.00 0.00 0.00 30 1011.7
20211017011712 77 225 0.9 1.7 0.00 0.00 0.00 29 1011.7
20211017011646 77 225 0.9 1.7 0.00 0.00 0.00 30 1011.7
20211017011608 78 225 0.0 1.7 0.00 0.00 0.00 30 1011.7
20211017011515 78 236 0.0 1.7 0.00 0.00 0.00 30 1011.7
20211017011419 78 218 0.0 1.7 0.00 0.00 0.00 30 1011.7
20211017011313 78 218 0.0 1.7 0.00 0.00 0.00 30 1011.7
20211017011209 78 233 0.0 1.7 0.00 0.00 0.00 30 1011.7
20211017011147 78 233 0.0 1.7 0.00 0.00 0.00 30 1011.7
20211017011114 78 233 0.0 1.7 0.00 0.00 0.00 29 1011.7
20211017011015 78 233 0.0 1.7 0.00 0.00 0.00 29 1011.6
20211017010908 78 206 0.0 0.9 0.00 0.00 0.00 29 1011.6
20211017010805 78 203 0.0 0.9 0.00 0.00 0.00 29 1011.6
20211017010646 78 203 0.0 1.7 0.00 0.00 0.00 29 1011.6
20211017010604 79 203 0.0 1.7 0.00 0.00 0.00 29 1011.6
20211017010504 79 203 0.0 1.7 0.00 0.00 0.00 29 1011.6
20211017010411 79 203 0.0 1.7 0.00 0.00 0.00 29 1011.6
20211017010304 79 203 0.0 1.7 0.00 0.00 0.00 29 1011.6
20211017010145 79 203 0.0 1.7 0.00 0.00 0.00 29 1011.6
20211017010103 79 203 0.0 1.7 0.00 0.00 0.00 28 1011.6
20211017010013 79 203 0.0 1.7 0.00 0.00 0.00 28 1011.6
20211017005904 79 203 0.0 1.7 0.00 0.00 0.00 28 1011.6
20211017005803 79 203 0.0 1.7 0.00 0.00 0.00 28 1011.6
20211017005646 79 207 0.0 1.7 0.00 0.00 0.00 29 1011.7
20211017005604 79 207 0.9 1.7 0.00 0.00 0.00 28 1011.7
20211017005505 79 211 0.0 1.7 0.00 0.00 0.00 28 1011.6
20211017005403 80 233 0.0 1.7 0.00 0.00 0.00 28 1011.7
20211017005305 80 151 0.9 2.6 0.00 0.00 0.00 28 1011.7
20211017005205 80 143 0.9 2.6 0.00 0.00 0.00 28 1011.6
20211017005145 80 143 0.9 2.6 0.00 0.00 0.00 28 1011.7
20211017005104 80 143 0.9 2.6 0.00 0.00 0.00 28 1011.7
20211017005011 80 144 0.9 2.6 0.00 0.00 0.00 27 1011.6
20211017004900 80 143 0.9 2.6 0.00 0.00 0.00 28 1011.6
20211017004759 80 222 0.9 2.6 0.00 0.00 0.00 27 1011.7
20211017004700 80 222 0.9 2.6 0.00 0.00 0.00 27 1011.6
20211017004641 80 222 0.9 2.6 0.00 0.00 0.00 27 1011.7
20211017004600 80 236 0.9 2.6 0.00 0.00 0.00 28 1011.7
20211017004501 80 203 0.9 2.6 0.00 0.00 0.00 27 1011.7
20211017004400 80 222 0.9 2.6 0.00 0.00 0.00 27 1011.8
20211017004300 80 210 0.9 1.7 0.00 0.00 0.00 27 1011.8
20211017004201 80 219 0.9 1.7 0.00 0.00 0.00 27 1011.8
20211017004141 80 219 0.9 1.7 0.00 0.00 0.00 26 1011.8
20211017004100 81 228 0.9 1.7 0.00 0.00 0.00 26 1011.8
20211017004000 81 228 0.9 1.7 0.00 0.00 0.00 26 1011.8
20211017003900 81 229 0.9 1.7 0.00 0.00 0.00 26 1011.8
20211017003800 81 195 0.9 1.7 0.00 0.00 0.00 26 1011.8
20211017003642 81 200 0.9 1.7 0.00 0.00 0.00 26 1011.8
20211017003600 81 158 0.9 1.7 0.00 0.00 0.00 26 1011.8
20211017003500 81 139 0.9 1.7 0.00 0.00 0.00 25 1011.8
20211017003400 81 199 0.9 1.7 0.00 0.00 0.00 25 1011.8
20211017003300 81 210 0.9 1.7 0.00 0.00 0.00 25 1011.8
20211017003201 81 207 0.9 1.7 0.00 0.00 0.00 25 1011.8
20211017003141 81 200 0.9 1.7 0.00 0.00 0.00 25 1011.7
20211017003100 82 203 0.9 1.7 0.00 0.00 0.00 25 1011.7
20211017002957 82 224 0.9 2.6 0.00 0.00 0.00 25 1011.8
20211017002856 82 150 0.9 2.6 0.00 0.00 0.00 24 1011.8
20211017002756 82 158 0.9 2.6 0.00 0.00 0.00 25 1011.8
20211017002656 82 210 0.9 2.6 0.00 0.00 0.00 25 1011.8
20211017002642 82 141 0.9 2.6 0.00 0.00 0.00 25 1011.8
20211017002556 82 185 0.9 2.6 0.00 0.00 0.00 25 1011.8
20211017002456 82 200 0.9 2.6 0.00 0.00 0.00 25 1011.8
20211017002356 82 201 0.9 2.6 0.00 0.00 0.00 25 1011.9
20211017002256 82 201 0.9 2.6 0.00 0.00 0.00 24 1011.8
20211017002156 82 201 0.9 2.6 0.00 0.00 0.00 24 1011.8
20211017002141 82 210 0.9 2.6 0.00 0.00 0.00 24 1011.8
20211017002055 82 215 0.9 2.6 0.00 0.00 0.00 24 1011.8
20211017001956 83 203 0.9 2.6 0.00 0.00 0.00 24 1011.8
20211017001856 83 219 0.9 2.6 0.00 0.00 0.00 24 1011.8
20211017001756 83 217 0.9 4.3 0.00 0.00 0.00 24 1011.8
20211017001641 83 232 0.9 4.3 0.00 0.00 0.00 23 1011.8
20211017001556 83 232 1.7 4.3 0.00 0.00 0.00 23 1011.8
20211017001457 83 238 1.7 4.3 0.00 0.00 0.00 23 1011.9
20211017001357 83 238 0.9 4.3 0.00 0.00 0.00 23 1011.9
20211017001256 83 229 0.9 4.3 0.00 0.00 0.00 23 1011.9
20211017001156 83 218 1.7 4.3 0.00 0.00 0.00 23 1011.9
20211017001141 83 214 1.7 4.3 0.00 0.00 0.00 23 1011.9
20211017001051 83 210 1.7 4.3 0.00 0.00 0.00 23 1011.9
20211017000953 84 232 1.7 4.3 0.00 0.00 0.00 23 1011.9
20211017000853 84 221 1.7 4.3 0.00 0.00 0.00 23 1011.9
20211017000751 84 242 1.7 3.5 0.00 0.00 0.00 24 1011.9
20211017000641 84 222 0.9 3.5 0.00 0.00 0.00 24 1011.9
20211017000552 84 224 0.9 3.5 0.00 0.00 0.00 24 1011.9
20211017000453 84 224 0.9 3.5 0.00 0.00 0.00 24 1011.9
20211017000353 84 208 0.9 3.5 0.00 0.00 0.00 23 1011.9
20211017000252 84 158 0.9 3.5 0.00 0.00 0.00 23 1012.0
20211017000155 84 137 0.9 3.5 0.00 0.00 0.00 23 1012.0
20211017000137 84 141 0.9 3.5 0.00 0.00 0.00 23 1012.0
20211017000052 84 161 0.9 3.5 0.00 0.00 0.00 23 1012.0
20211016235952 84 211 0.9 3.5 0.00 0.00 0.00 23 1012.0
20211016235852 84 190 0.9 3.5 0.00 0.00 0.00 24 1012.0
20211016235808 84 185 0.9 3.5 0.00 0.00 0.00 24 1012.0
20211016235637 84 203 0.9 3.5 0.00 0.00 0.00 24 1012.0
20211016235558 84 204 0.9 3.5 0.00 0.00 0.00 23 1012.0
20211016235452 84 210 0.9 3.5 0.00 0.00 0.00 23 1012.1
20211016235407 84 228 0.9 3.5 0.00 0.00 0.00 22 1012.1
20211016235253 84 193 0.9 3.5 0.00 0.00 0.00 23 1012.1
20211016235148 84 200 0.9 3.5 0.00 0.00 0.00 23 1012.1
20211016235137 84 226 0.9 3.5 0.00 0.00 0.00 23 1012.1
20211016235048 84 211 0.9 3.5 0.00 0.00 0.00 25 1012.1
20211016234948 84 231 0.9 3.5 0.00 0.00 0.00 23 1012.1
20211016234848 84 234 0.9 3.5 0.00 0.00 0.00 23 1012.1
20211016234747 84 229 0.9 3.5 0.00 0.00 0.00 22 1012.1
20211016234648 84 190 0.9 3.5 0.00 0.00 0.00 22 1012.2
20211016234638 84 175 0.9 3.5 0.00 0.00 0.00 22 1012.1
20211016234548 84 158 0.9 3.5 0.00 0.00 0.00 23 1012.1
20211016234449 84 195 0.9 3.5 0.00 0.00 0.00 23 1012.1
20211016234348 84 197 0.9 3.5 0.00 0.00 0.00 22 1012.1
20211016234248 84 226 0.9 3.5 0.00 0.00 0.00 22 1012.1
20211016234147 84 220 0.9 3.5 0.00 0.00 0.00 22 1012.1
20211016234137 84 211 0.9 3.5 0.00 0.00 0.00 22 1012.1
20211016234049 84 224 0.9 3.5 0.00 0.00 0.00 22 1012.1
20211016233949 84 190 0.9 3.5 0.00 0.00 0.00 22 1012.1
20211016233848 84 238 0.9 3.5 0.00 0.00 0.00 22 1012.1
20211016233748 84 120 0.9 3.5 0.00 0.00 0.00 22 1012.2
20211016233647 84 191 0.9 3.5 0.00 0.00 0.00 23 1012.2
20211016233637 84 221 0.9 3.5 0.00 0.00 0.00 23 1012.2
20211016233548 84 166 0.9 3.5 0.00 0.00 0.00 24 1012.2
20211016233448 84 231 0.9 3.5 0.00 0.00 0.00 24 1012.2
20211016233348 84 215 0.9 3.5 0.00 0.00 0.00 24 1012.2
20211016233244 84 188 0.9 3.5 0.00 0.00 0.00 24 1012.2
20211016233202 84 188 0.9 3.5 0.00 0.00 0.00 24 1012.2
20211016233137 84 188 1.7 3.5 0.00 0.00 0.00 24 1012.2
20211016233044 84 169 1.7 3.5 0.00 0.00 0.00 23 1012.2
20211016232943 84 169 1.7 3.5 0.00 0.00 0.00 22 1012.2
20211016232843 84 215 0.9 2.6 0.00 0.00 0.00 22 1012.2
20211016232743 84 213 0.9 2.6 0.00 0.00 0.00 22 1012.2
20211016232637 84 94 0.9 2.6 0.00 0.00 0.00 22 1012.3
20211016232544 84 94 0.9 2.6 0.00 0.00 0.00 21 1012.3
20211016232444 84 94 0.9 2.6 0.00 0.00 0.00 21 1012.3
20211016232343 85 115 0.9 2.6 0.00 0.00 0.00 21 1012.3
20211016232244 85 142 0.9 2.6 0.00 0.00 0.00 21 1012.3
20211016232147 85 140 0.9 4.3 0.00 0.00 0.00 21 1012.3
20211016232137 85 141 0.9 4.3 0.00 0.00 0.00 21 1012.3
20211016232043 85 138 0.9 4.3 0.00 0.00 0.00 21 1012.3
20211016231943 85 149 0.9 4.3 0.00 0.00 0.00 22 1012.3
20211016231844 85 177 0.9 4.3 0.00 0.00 0.00 23 1012.4
20211016231744 85 180 0.9 4.3 0.00 0.00 0.00 23 1012.3
20211016231633 85 179 0.9 4.3 0.00 0.00 0.00 22 1012.4
20211016231543 85 184 0.9 4.3 0.00 0.00 0.00 22 1012.4
20211016231445 84 225 1.7 4.3 0.00 0.00 0.00 23 1012.4
20211016231339 84 171 1.7 4.3 0.00 0.00 0.00 22 1012.4
20211016231240 84 122 1.7 4.3 0.00 0.00 0.00 22 1012.4
20211016231143 84 176 1.7 4.3 0.00 0.00 0.00 23 1012.4
20211016231133 84 167 1.7 4.3 0.00 0.00 0.00 23 1012.4
20211016231041 84 135 1.7 4.3 0.00 0.00 0.00 23 1012.4
20211016230940 83 132 1.7 4.3 0.00 0.00 0.00 23 1012.5
20211016230842 83 144 1.7 4.3 0.00 0.00 0.00 22 1012.5
20211016230741 83 138 1.7 4.3 0.00 0.00 0.00 21 1012.5
20211016230633 83 145 0.9 4.3 0.00 0.00 0.00 21 1012.5
20211016230543 83 113 0.9 3.5 0.00 0.00 0.00 22 1012.5
20211016230439 83 138 0.9 3.5 0.00 0.00 0.00 22 1012.5
20211016230339 84 115 0.9 3.5 0.00 0.00 0.00 21 1012.5
20211016230239 84 145 0.9 3.5 0.00 0.00 0.00 22 1012.5
20211016230144 84 131 0.0 3.5 0.00 0.00 0.00 22 1012.5
20211016230133 84 122 0.0 3.5 0.00 0.00 0.00 22 1012.5
20211016230040 84 112 0.0 3.5 0.00 0.00 0.00 23 1012.5
20211016225940 84 167 0.0 0.9 0.00 0.00 0.00 22 1012.5
20211016225840 83 210 0.0 3.5 0.00 0.00 0.00 23 1012.5
20211016225740 83 44 0.0 3.5 0.00 0.00 0.00 23 1012.5
20211016225633 83 44 0.9 3.5 0.00 0.00 0.00 23 1012.5
20211016225543 83 44 0.9 3.5 0.00 0.00 0.00 23 1012.6
20211016225437 83 44 0.9 3.5 0.00 0.00 0.00 23 1012.5
20211016225336 83 44 0.9 3.5 0.00 0.00 0.00 23 1012.5
20211016225236 83 44 0.9 3.5 0.00 0.00 0.00 24 1012.5
20211016225139 83 44 0.9 3.5 0.00 0.00 0.00 24 1012.6
20211016225036 83 44 0.9 3.5 0.00 0.00 0.00 24 1012.6
20211016224936 83 44 0.9 3.5 0.00 0.00 0.00 23 1012.6
20211016224836 83 141 0.9 3.5 0.00 0.00 0.00 23 1012.6
20211016224736 83 142 0.9 3.5 0.00 0.00 0.00 23 1012.6
20211016224638 83 105 0.9 3.5 0.00 0.00 0.00 23 1012.6
20211016224537 84 78 0.9 3.5 0.00 0.00 0.00 22 1012.7
20211016224436 84 78 0.9 3.5 0.00 0.00 0.00 23 1012.7
20211016224336 84 113 0.9 2.6 0.00 0.00 0.00 23 1012.7
20211016224236 84 120 0.0 2.6 0.00 0.00 0.00 22 1012.7
20211016224137 84 124 0.0 1.7 0.00 0.00 0.00 22 1012.7
20211016224036 84 125 0.0 1.7 0.00 0.00 0.00 22 1012.7
20211016223937 84 126 0.0 1.7 0.00 0.00 0.00 23 1012.7
20211016223836 84 141 0.0 1.7 0.00 0.00 0.00 23 1012.7
20211016223736 84 142 0.0 1.7 0.00 0.00 0.00 23 1012.7
20211016223637 84 142 0.9 2.6 0.00 0.00 0.00 23 1012.7
20211016223531 84 142 0.9 4.3 0.00 0.00 0.00 23 1012.7
20211016223431 84 142 0.9 4.3 0.00 0.00 0.00 22 1012.7
20211016223331 83 131 0.9 4.3 0.00 0.00 0.00 22 1012.7
20211016223232 83 131 1.7 4.3 0.00 0.00 0.00 22 1012.7
20211016223135 83 131 1.7 4.3 0.00 0.00 0.00 22 1012.7
20211016223034 83 131 1.7 4.3 0.00 0.00 0.00 22 1012.7
20211016222933 83 131 1.7 4.3 0.00 0.00 0.00 22 1012.7
20211016222832 83 139 1.7 4.3 0.00 0.00 0.00 22 1012.8
20211016222731 83 128 1.7 4.3 0.00 0.00 0.00 22 1012.7
20211016222633 83 128 1.7 4.3 0.00 0.00 0.00 22 1012.7
20211016222532 84 140 1.7 4.3 0.00 0.00 0.00 22 1012.8
20211016222431 84 139 1.7 4.3 0.00 0.00 0.00 22 1012.8
20211016222331 84 158 0.9 4.3 0.00 0.00 0.00 22 1012.8
20211016222231 84 138 0.9 4.3 0.00 0.00 0.00 22 1012.8
20211016222134 84 125 0.9 4.3 0.00 0.00 0.00 22 1012.8
20211016222032 84 133 0.9 4.3 0.00 0.00 0.00 23 1012.8
20211016221932 84 122 0.9 4.3 0.00 0.00 0.00 22 1012.8
20211016221833 84 113 0.9 3.5 0.00 0.00 0.00 23 1012.8
20211016221733 84 221 0.9 3.5 0.00 0.00 0.00 23 1012.8
20211016221628 84 203 0.9 3.5 0.00 0.00 0.00 22 1012.8
20211016221528 84 132 0.9 3.5 0.00 0.00 0.00 22 1012.8
20211016221429 84 129 1.7 3.5 0.00 0.00 0.00 23 1012.8
20211016221328 83 131 1.7 3.5 0.00 0.00 0.00 23 1012.8
20211016221228 83 137 1.7 3.5 0.00 0.00 0.00 23 1012.8
20211016221128 83 136 1.7 3.5 0.00 0.00 0.00 22 1012.8
20211016221028 84 138 1.7 3.5 0.00 0.00 0.00 22 1012.8
20211016220928 84 82 1.7 3.5 0.00 0.00 0.00 22 1012.9
20211016220828 84 131 0.9 3.5 0.00 0.00 0.00 22 1012.9
20211016220728 84 134 0.9 3.5 0.00 0.00 0.00 22 1012.9
20211016220628 84 145 0.9 3.5 0.00 0.00 0.00 23 1012.8
20211016220527 84 131 0.9 3.5 0.00 0.00 0.00 23 1012.8
20211016220428 84 130 0.9 3.5 0.00 0.00 0.00 23 1012.9
20211016220329 84 150 0.0 1.7 0.00 0.00 0.00 23 1012.9
20211016220228 83 217 0.0 1.7 0.00 0.00 0.00 23 1012.9
20211016220135 83 168 0.0 1.7 0.00 0.00 0.00 23 1012.9
20211016220128 83 167 0.0 1.7 0.00 0.00 0.00 23 1012.9
20211016220035 83 200 0.0 1.7 0.00 0.00 0.00 24 1012.9
20211016215927 83 322 0.0 1.7 0.00 0.00 0.00 25 1012.9
20211016215828 83 319 0.0 0.9 0.00 0.00 0.00 24 1013.0
20211016215724 83 319 0.0 0.9 0.00 0.00 0.00 24 1013.0
20211016215624 83 319 0.0 0.9 0.00 0.00 0.00 24 1013.0
20211016215524 83 319 0.0 0.9 0.00 0.00 0.00 24 1013.0
20211016215424 83 319 0.0 0.9 0.00 0.00 0.00 24 1013.0
20211016215324 83 319 0.0 0.9 0.00 0.00 0.00 25 1013.0
20211016215223 83 319 0.0 0.9 0.00 0.00 0.00 24 1013.0
20211016215130 83 326 0.0 0.9 0.00 0.00 0.00 25 1013.0
20211016215124 83 352 0.0 0.9 0.00 0.00 0.00 25 1013.0
20211016215024 83 25 0.0 0.9 0.00 0.00 0.00 24 1013.0
20211016214924 83 350 0.0 0.9 0.00 0.00 0.00 25 1013.1
20211016214824 83 350 0.0 0.9 0.00 0.00 0.00 24 1013.1
20211016214724 83 350 0.0 0.9 0.00 0.00 0.00 23 1013.1
20211016214629 83 69 0.0 0.9 0.00 0.00 0.00 23 1013.1
20211016214623 83 70 0.0 0.9 0.00 0.00 0.00 23 1013.1
20211016214524 83 133 0.0 1.7 0.00 0.00 0.00 24 1013.2
20211016214425 83 132 0.0 1.7 0.00 0.00 0.00 24 1013.2
20211016214325 83 132 0.9 1.7 0.00 0.00 0.00 24 1013.2
20211016214224 83 133 0.9 1.7 0.00 0.00 0.00 24 1013.3
20211016214124 83 197 0.9 1.7 0.00 0.00 0.00 24 1013.3
20211016214025 82 197 0.9 2.6 0.00 0.00 0.00 24 1013.3
20211016213924 82 197 0.9 3.5 0.00 0.00 0.00 23 1013.3
20211016213819 82 195 1.7 4.3 0.00 0.00 0.00 23 1013.4
20211016213719 82 195 1.7 4.3 0.00 0.00 0.00 24 1013.4
20211016213620 82 195 1.7 4.3 0.00 0.00 0.00 24 1013.4
20211016213523 82 208 1.7 4.3 0.00 0.00 0.00 24 1013.4
20211016213420 82 206 1.7 4.3 0.00 0.00 0.00 23 1013.4
20211016213320 82 215 1.7 4.3 0.00 0.00 0.00 24 1013.4
20211016213220 82 139 1.7 4.3 0.00 0.00 0.00 24 1013.4
20211016213126 82 129 1.7 4.3 0.00 0.00 0.00 23 1013.4
20211016213120 82 91 1.7 4.3 0.00 0.00 0.00 23 1013.4
20211016213020 83 94 1.7 4.3 0.00 0.00 0.00 23 1013.4
20211016212920 83 131 0.9 4.3 0.00 0.00 0.00 23 1013.4
20211016212820 83 124 0.9 3.5 0.00 0.00 0.00 24 1013.4
20211016212719 83 203 0.9 3.5 0.00 0.00 0.00 24 1013.4
20211016212626 83 215 0.9 3.5 0.00 0.00 0.00 23 1013.4
20211016212620 83 198 0.9 3.5 0.00 0.00 0.00 23 1013.4
20211016212524 83 132 0.9 3.5 0.00 0.00 0.00 23 1013.4
20211016212423 83 138 0.9 3.5 0.00 0.00 0.00 24 1013.4
20211016212320 83 143 0.9 2.6 0.00 0.00 0.00 24 1013.5
20211016212219 83 108 0.9 2.6 0.00 0.00 0.00 24 1013.5
20211016212126 83 153 0.9 2.6 0.00 0.00 0.00 25 1013.5
20211016212120 83 154 0.9 2.6 0.00 0.00 0.00 25 1013.5
20211016212021 82 153 0.9 2.6 0.00 0.00 0.00 24 1013.5
20211016211917 82 208 0.9 2.6 0.00 0.00 0.00 25 1013.6
20211016211817 82 197 0.9 2.6 0.00 0.00 0.00 24 1013.6
20211016211716 82 197 0.9 2.6 0.00 0.00 0.00 24 1013.6
20211016211625 82 177 0.9 2.6 0.00 0.00 0.00 24 1013.6
20211016211615 82 162 0.9 2.6 0.00 0.00 0.00 24 1013.6
20211016211516 82 207 0.9 2.6 0.00 0.00 0.00 25 1013.7
20211016211416 81 228 0.9 2.6 0.00 0.00 0.00 25 1013.6
20211016211316 81 207 0.9 2.6 0.00 0.00 0.00 25 1013.7
20211016211215 81 186 0.9 2.6 0.00 0.00 0.00 25 1013.7
20211016211125 81 164 0.9 2.6 0.00 0.00 0.00 25 1013.7
20211016211115 81 144 0.9 2.6 0.00 0.00 0.00 25 1013.7
20211016211015 81 204 0.9 2.6 0.00 0.00 0.00 24 1013.7
20211016210916 81 204 0.9 1.7 0.00 0.00 0.00 25 1013.7
20211016210816 81 304 0.9 1.7 0.00 0.00 0.00 25 1013.8
20211016210716 81 304 0.9 1.7 0.00 0.00 0.00 24 1013.8
20211016210616 81 307 0.0 1.7 0.00 0.00 0.00 24 1013.8
20211016210517 82 291 0.0 0.9 0.00 0.00 0.00 25 1013.8
20211016210416 82 291 0.0 0.9 0.00 0.00 0.00 24 1013.8
20211016210316 82 290 0.0 0.9 0.00 0.00 0.00 24 1013.8
20211016210215 83 289 0.0 0.9 0.00 0.00 0.00 25 1013.8
20211016210116 83 290 0.0 0.9 0.00 0.00 0.00 26 1013.9
20211016210012 83 290 0.0 0.9 0.00 0.00 0.00 25 1013.9
20211016205911 83 133 0.0 0.9 0.00 0.00 0.00 25 1013.9
20211016205811 83 132 0.0 1.7 0.00 0.00 0.00 25 1013.9
20211016205725 83 132 0.0 1.7 0.00 0.00 0.00 25 1013.9
20211016205621 83 132 0.9 1.7 0.00 0.00 0.00 25 1013.9
20211016205612 83 133 0.9 1.7 0.00 0.00 0.00 26 1013.9
20211016205513 83 132 0.9 2.6 0.00 0.00 0.00 25 1014.0
20211016205412 83 133 0.9 2.6 0.00 0.00 0.00 24 1014.0
20211016205311 82 132 0.9 2.6 0.00 0.00 0.00 25 1014.0
20211016205211 82 133 0.9 2.6 0.00 0.00 0.00 26 1014.0
20211016205112 82 133 0.9 4.3 0.00 0.00 0.00 24 1014.1
20211016205012 82 135 0.9 4.3 0.00 0.00 0.00 25 1014.1
20211016204911 82 128 0.9 4.3 0.00 0.00 0.00 25 1014.1
20211016204811 81 129 0.9 4.3 0.00 0.00 0.00 24 1014.1
20211016204713 81 127 1.7 4.3 0.00 0.00 0.00 24 1014.2
20211016204621 81 197 1.7 4.3 0.00 0.00 0.00 25 1014.2
20211016204612 81 193 1.7 4.3 0.00 0.00 0.00 25 1014.2
20211016204511 81 236 0.9 4.3 0.00 0.00 0.00 26 1014.2
20211016204411 81 210 0.9 4.3 0.00 0.00 0.00 27 1014.2
20211016204312 81 228 0.9 4.3 0.00 0.00 0.00 26 1014.3
20211016204212 81 186 0.9 4.3 0.00 0.00 0.00 26 1014.3
20211016204107 81 219 0.9 3.5 0.00 0.00 0.00 26 1014.3
20211016204007 81 235 0.9 3.5 0.00 0.00 0.00 25 1014.3
20211016203907 81 153 0.9 3.5 0.00 0.00 0.00 26 1014.3
20211016203808 81 143 0.9 2.6 0.00 0.00 0.00 26 1014.3
20211016203708 81 131 0.9 2.6 0.00 0.00 0.00 27 1014.3
20211016203621 81 150 0.9 2.6 0.00 0.00 0.00 27 1014.4
20211016203608 81 125 0.9 2.6 0.00 0.00 0.00 27 1014.4
20211016203510 81 124 0.9 2.6 0.00 0.00 0.00 27 1014.4
20211016203407 81 124 0.0 2.6 0.00 0.00 0.00 28 1014.5
20211016203307 80 124 0.0 2.6 0.00 0.00 0.00 27 1014.5
20211016203208 80 275 0.0 2.6 0.00 0.00 0.00 27 1014.5
20211016203108 80 274 0.0 2.6 0.00 0.00 0.00 28 1014.5
20211016203008 80 256 0.0 2.6 0.00 0.00 0.00 28 1014.6
20211016202908 80 254 0.0 2.6 0.00 0.00 0.00 28 1014.6
20211016202807 80 232 0.0 2.6 0.00 0.00 0.00 28 1014.6
20211016202709 80 159 0.0 2.6 0.00 0.00 0.00 29 1014.7
20211016202608 80 319 0.0 1.7 0.00 0.00 0.00 30 1014.7
20211016202507 79 319 0.0 1.7 0.00 0.00 0.00 30 1014.7
20211016202410 79 319 0.0 1.7 0.00 0.00 0.00 30 1014.7
20211016202308 79 319 0.0 1.7 0.00 0.00 0.00 29 1014.8
20211016202204 79 319 0.0 1.7 0.00 0.00 0.00 29 1014.8
20211016202121 79 319 0.9 1.7 0.00 0.00 0.00 29 1014.9
20211016202104 79 319 0.9 1.7 0.00 0.00 0.00 29 1014.9
20211016202009 79 319 0.9 1.7 0.00 0.00 0.00 30 1014.9
20211016201904 79 320 0.9 1.7 0.00 0.00 0.00 30 1014.8
20211016201804 79 322 0.9 3.5 0.00 0.00 0.00 30 1014.9
20211016201704 79 322 0.9 3.5 0.00 0.00 0.00 29 1014.9
20211016201617 79 257 0.9 3.5 0.00 0.00 0.00 30 1014.9
20211016201604 79 257 0.9 3.5 0.00 0.00 0.00 30 1014.9
20211016201503 79 257 0.9 3.5 0.00 0.00 0.00 30 1015.0
20211016201404 79 245 0.9 3.5 0.00 0.00 0.00 30 1014.9
20211016201304 79 245 0.9 3.5 0.00 0.00 0.00 30 1014.9
20211016201204 79 245 0.9 3.5 0.00 0.00 0.00 30 1015.0
20211016201117 79 242 0.9 3.5 0.00 0.00 0.00 30 1015.0
20211016201104 79 242 0.9 3.5 0.00 0.00 0.00 30 1015.0
20211016201009 79 217 0.9 3.5 0.00 0.00 0.00 29 1015.0
20211016200904 78 226 0.9 3.5 0.00 0.00 0.00 30 1015.0
20211016200803 78 177 0.9 3.5 0.00 0.00 0.00 29 1015.0
20211016200705 78 173 0.9 3.5 0.00 0.00 0.00 29 1015.1
20211016200618 78 193 0.9 3.5 0.00 0.00 0.00 30 1015.1
20211016200604 78 200 0.9 2.6 0.00 0.00 0.00 30 1015.1
20211016200507 78 311 0.9 2.6 0.00 0.00 0.00 29 1015.1
20211016200404 78 315 0.9 2.6 0.00 0.00 0.00 31 1015.1
20211016200259 78 228 0.9 2.6 0.00 0.00 0.00 31 1015.1
20211016200200 78 225 0.9 2.6 0.00 0.00 0.00 32 1015.1
20211016200117 78 221 0.9 3.5 0.00 0.00 0.00 31 1015.2
20211016200100 78 219 0.9 3.5 0.00 0.00 0.00 31 1015.2
20211016195959 78 222 0.9 3.5 0.00 0.00 0.00 32 1015.2
20211016195900 78 214 0.9 3.5 0.00 0.00 0.00 31 1015.2
20211016195800 78 289 0.9 3.5 0.00 0.00 0.00 31 1015.2
20211016195700 78 319 0.9 3.5 0.00 0.00 0.00 31 1015.2
20211016195617 78 273 0.9 3.5 0.00 0.00 0.00 31 1015.2
20211016195600 78 124 0.9 3.5 0.00 0.00 0.00 31 1015.2
20211016195500 78 124 0.9 3.5 0.00 0.00 0.00 31 1015.2
20211016195359 78 120 0.9 3.5 0.00 0.00 0.00 31 1015.3
20211016195300 77 136 0.9 3.5 0.00 0.00 0.00 31 1015.2
20211016195200 78 301 0.9 3.5 0.00 0.00 0.00 30 1015.3
20211016195117 78 300 0.9 4.3 0.00 0.00 0.00 30 1015.2
20211016195100 78 300 0.9 4.3 0.00 0.00 0.00 30 1015.2
20211016195000 78 316 0.9 4.3 0.00 0.00 0.00 30 1015.3
20211016194859 78 297 1.7 4.3 0.00 0.00 0.00 31 1015.3
20211016194800 78 297 1.7 4.3 0.00 0.00 0.00 30 1015.3
20211016194700 79 316 1.7 4.3 0.00 0.00 0.00 30 1015.3
20211016194617 79 359 1.7 4.3 0.00 0.00 0.00 30 1015.4
20211016194559 79 359 1.7 4.3 0.00 0.00 0.00 31 1015.4
20211016194514 79 267 1.7 4.3 0.00 0.00 0.00 31 1015.4
20211016194401 79 218 1.7 4.3 0.00 0.00 0.00 30 1015.4
20211016194256 79 134 0.9 4.3 0.00 0.00 0.00 30 1015.4
20211016194157 79 198 0.9 4.3 0.00 0.00 0.00 30 1015.5
20211016194117 79 197 0.9 4.3 0.00 0.00 0.00 30 1015.5
20211016194106 79 141 0.9 2.6 0.00 0.00 0.00 29 1015.5
20211016193957 78 123 0.9 2.6 0.00 0.00 0.00 29 1015.5
20211016193907 78 124 0.9 2.6 0.00 0.00 0.00 30 1015.5
20211016193759 78 161 0.9 2.6 0.00 0.00 0.00 31 1015.5
20211016193656 78 177 0.9 2.6 0.00 0.00 0.00 31 1015.5
20211016193620 78 207 0.9 2.6 0.00 0.00 0.00 32 1015.6
20211016193615 77 162 0.9 2.6 0.00 0.00 0.00 31 1015.6
20211016193456 78 314 0.9 2.6 0.00 0.00 0.00 31 1015.6
20211016193355 78 275 0.9 2.6 0.00 0.00 0.00 31 1015.5
20211016193257 78 146 0.9 2.6 0.00 0.00 0.00 32 1015.6
20211016193200 78 146 0.9 2.6 0.00 0.00 0.00 32 1015.6
20211016193113 77 147 0.9 2.6 0.00 0.00 0.00 32 1015.6
20211016193056 77 146 0.9 2.6 0.00 0.00 0.00 32 1015.6
20211016192956 77 80 0.9 2.6 0.00 0.00 0.00 31 1015.6
20211016192859 77 179 0.0 2.6 0.00 0.00 0.00 32 1015.7
20211016192756 77 200 0.9 2.6 0.00 0.00 0.00 31 1015.7
20211016192656 77 214 0.0 2.6 0.00 0.00 0.00 32 1015.7
20211016192613 76 133 0.0 2.6 0.00 0.00 0.00 32 1015.7
20211016192559 76 133 0.0 2.6 0.00 0.00 0.00 32 1015.7
20211016192452 76 257 0.9 2.6 0.00 0.00 0.00 32 1015.7
20211016192352 76 215 0.9 1.7 0.00 0.00 0.00 33 1015.8
20211016192252 76 197 0.9 3.5 0.00 0.00 0.00 32 1015.7
20211016192152 76 194 0.9 3.5 0.00 0.00 0.00 31 1015.8
20211016192113 76 158 0.9 3.5 0.00 0.00 0.00 32 1015.8
20211016192058 76 302 0.9 3.5 0.00 0.00 0.00 32 1015.8
20211016191951 76 302 0.9 3.5 0.00 0.00 0.00 32 1015.8
20211016191852 76 302 0.9 3.5 0.00 0.00 0.00 33 1015.8
20211016191752 76 222 0.9 3.5 0.00 0.00 0.00 32 1015.8
20211016191652 76 313 0.9 3.5 0.00 0.00 0.00 32 1015.9
20211016191614 76 316 0.9 3.5 0.00 0.00 0.00 32 1015.8
20211016191552 76 316 0.9 3.5 0.00 0.00 0.00 32 1015.8
20211016191452 76 297 0.0 3.5 0.00 0.00 0.00 32 1015.9
20211016191351 76 305 0.0 3.5 0.00 0.00 0.00 31 1015.9
20211016191255 76 264 0.0 1.7 0.00 0.00 0.00 32 1015.9
20211016191152 75 198 0.0 1.7 0.00 0.00 0.00 32 1015.9
20211016191114 75 168 0.0 1.7 0.00 0.00 0.00 32 1015.9
20211016191059 75 151 0.0 1.7 0.00 0.00 0.00 32 1015.9
20211016190952 75 260 0.0 1.7 0.00 0.00 0.00 33 1015.9
20211016190851 75 259 0.9 2.6 0.00 0.00 0.00 35 1015.9
20211016190751 74 259 0.9 2.6 0.00 0.00 0.00 35 1015.9
20211016190652 74 141 0.9 2.6 0.00 0.00 0.00 34 1015.9
20211016190613 74 214 0.9 2.6 0.00 0.00 0.00 34 1015.9
20211016190547 74 217 0.9 2.6 0.00 0.00 0.00 34 1015.9
20211016190448 74 294 0.9 2.6 0.00 0.00 0.00 33 1015.9
20211016190348 74 293 0.9 2.6 0.00 0.00 0.00 33 1015.9
20211016190248 74 307 0.9 2.6 0.00 0.00 0.00 33 1015.9
20211016190118 74 309 0.9 2.6 0.00 0.00 0.00 33 1015.9
20211016190048 74 309 0.9 2.6 0.00 0.00 0.00 33 1015.9
20211016185948 74 307 0.9 2.6 0.00 0.00 0.00 32 1015.9
20211016185847 74 300 0.0 2.6 0.00 0.00 0.00 33 1015.9
20211016185747 74 335 0.0 2.6 0.00 0.00 0.00 33 1015.9
20211016185647 74 264 0.0 2.6 0.00 0.00 0.00 33 1015.9
20211016185612 74 264 0.9 2.6 0.00 0.00 0.00 34 1015.9
20211016185547 74 174 0.9 2.6 0.00 0.00 0.00 34 1015.9
20211016185448 74 153 0.9 2.6 0.00 0.00 0.00 33 1015.9
20211016185349 74 153 0.9 2.6 0.00 0.00 0.00 35 1016.0
20211016185248 74 141 0.9 2.6 0.00 0.00 0.00 33 1016.0
20211016185148 74 198 0.9 2.6 0.00 0.00 0.00 35 1016.0
20211016185113 74 311 0.9 2.6 0.00 0.00 0.00 33 1016.0
20211016185048 74 312 0.9 2.6 0.00 0.00 0.00 33 1016.0
20211016184948 74 312 0.9 2.6 0.00 0.00 0.00 34 1016.0
20211016184847 74 312 0.9 2.6 0.00 0.00 0.00 33 1016.0
20211016184748 74 312 0.9 2.6 0.00 0.00 0.00 33 1016.1
20211016184644 74 312 0.9 2.6 0.00 0.00 0.00 32 1016.1
20211016184609 74 315 0.9 2.6 0.00 0.00 0.00 34 1016.1
20211016184544 74 255 0.9 2.6 0.00 0.00 0.00 34 1016.1
20211016184443 74 211 0.9 2.6 0.00 0.00 0.00 33 1016.1
20211016184344 74 203 0.9 2.6 0.00 0.00 0.00 33 1016.1
20211016184243 73 183 0.9 3.5 0.00 0.00 0.00 34 1016.1
20211016184144 73 113 0.9 3.5 0.00 0.00 0.00 33 1016.1
20211016184109 73 280 0.9 3.5 0.00 0.00 0.00 33 1016.1
20211016184044 73 280 0.9 3.5 0.00 0.00 0.00 33 1016.2
20211016183944 73 280 0.9 3.5 0.00 0.00 0.00 33 1016.2
20211016183844 74 280 0.9 3.5 0.00 0.00 0.00 32 1016.2
20211016183744 74 280 0.9 3.5 0.00 0.00 0.00 32 1016.2
20211016183643 74 280 0.9 3.5 0.00 0.00 0.00 32 1016.2
20211016183609 74 260 0.9 3.5 0.00 0.00 0.00 33 1016.2
20211016183544 74 260 0.9 3.5 0.00 0.00 0.00 33 1016.2
20211016183444 74 203 0.0 3.5 0.00 0.00 0.00 32 1016.2
20211016183344 74 197 0.0 3.5 0.00 0.00 0.00 33 1016.3
20211016183244 74 304 0.0 2.6 0.00 0.00 0.00 32 1016.3
20211016183144 74 304 0.0 1.7 0.00 0.00 0.00 34 1016.3
20211016183110 74 160 0.0 1.7 0.00 0.00 0.00 34 1016.3
20211016183045 74 160 0.0 1.7 0.00 0.00 0.00 34 1016.4
20211016182944 74 160 0.0 2.6 0.00 0.00 0.00 34 1016.4
20211016182844 74 210 0.9 3.5 0.00 0.00 0.00 34 1016.4
20211016182739 73 219 0.9 4.3 0.00 0.00 0.00 32 1016.4
20211016182640 73 218 1.7 4.3 0.00 0.00 0.00 32 1016.5
20211016182609 73 217 1.7 4.3 0.00 0.00 0.00 32 1016.5
20211016182545 73 217 1.7 4.3 0.00 0.00 0.00 32 1016.5
20211016182440 73 217 1.7 5.2 0.00 0.00 0.00 33 1016.5
20211016182340 73 217 1.7 5.2 0.00 0.00 0.00 32 1016.5
20211016182239 73 217 1.7 5.2 0.00 0.00 0.00 33 1016.6
20211016182140 73 207 1.7 5.2 0.00 0.00 0.00 32 1016.6
20211016182109 73 219 1.7 5.2 0.00 0.00 0.00 32 1016.6
20211016182040 73 124 1.7 5.2 0.00 0.00 0.00 31 1016.6
20211016181940 73 235 0.9 5.2 0.00 0.00 0.00 32 1016.6
20211016181839 73 185 0.9 5.2 0.00 0.00 0.00 33 1016.6
20211016181739 72 129 0.9 5.2 0.00 0.00 0.00 33 1016.7
20211016181639 72 126 0.9 5.2 0.00 0.00 0.00 33 1016.7
20211016181609 72 127 0.9 5.2 0.00 0.00 0.00 33 1016.7
20211016181543 72 225 0.9 5.2 0.00 0.00 0.00 33 1016.7
20211016181440 72 205 0.0 3.5 0.00 0.00 0.00 35 1016.7
20211016181340 72 201 0.0 1.7 0.00 0.00 0.00 34 1016.7
20211016181239 72 281 0.0 1.7 0.00 0.00 0.00 34 1016.7
20211016181140 72 281 0.0 1.7 0.00 0.00 0.00 34 1016.7
20211016181109 72 257 0.0 1.7 0.00 0.00 0.00 34 1016.7
20211016181039 72 226 0.0 1.7 0.00 0.00 0.00 34 1016.6
20211016180940 72 96 0.0 1.7 0.00 0.00 0.00 33 1016.6
20211016180836 72 108 0.0 1.7 0.00 0.00 0.00 34 1016.7
20211016180737 72 194 0.0 1.7 0.00 0.00 0.00 34 1016.7
20211016180636 71 150 0.0 1.7 0.00 0.00 0.00 34 1016.7
20211016180610 71 193 0.0 1.7 0.00 0.00 0.00 36 1016.7
20211016180536 71 185 0.0 0.9 0.00 0.00 0.00 36 1016.7
20211016180436 71 263 0.0 0.9 0.00 0.00 0.00 36 1016.7
20211016180336 71 263 0.0 1.7 0.00 0.00 0.00 37 1016.7
20211016180237 71 263 0.0 1.7 0.00 0.00 0.00 36 1016.6
20211016180112 71 263 0.0 1.7 0.00 0.00 0.00 36 1016.7
20211016180036 71 263 0.0 1.7 0.00 0.00 0.00 36 1016.7
20211016175936 71 263 0.0 1.7 0.00 0.00 0.00 36 1016.7
20211016175835 71 245 0.0 1.7 0.00 0.00 0.00 36 1016.6
20211016175738 71 162 0.9 1.7 0.00 0.00 0.00 35 1016.6
20211016175635 71 162 0.9 2.6 0.00 0.00 0.00 35 1016.6
20211016175607 71 114 0.9 2.6 0.00 0.00 0.00 35 1016.6
20211016175536 71 114 0.9 2.6 0.00 0.00 0.00 34 1016.7
20211016175435 71 131 0.9 2.6 0.00 0.00 0.00 35 1016.7
20211016175335 71 120 0.9 2.6 0.00 0.00 0.00 34 1016.7
20211016175235 71 163 0.9 3.5 0.00 0.00 0.00 35 1016.7
20211016175137 71 206 0.9 3.5 0.00 0.00 0.00 36 1016.8
20211016175106 71 207 0.9 3.5 0.00 0.00 0.00 36 1016.8
20211016175036 71 197 1.7 3.5 0.00 0.00 0.00 35 1016.8
20211016174932 71 212 1.7 3.5 0.00 0.00 0.00 35 1016.8
20211016174832 71 201 1.7 3.5 0.00 0.00 0.00 35 1016.9
20211016174732 71 163 1.7 3.5 0.00 0.00 0.00 34 1016.9
20211016174632 71 150 0.9 3.5 0.00 0.00 0.00 35 1016.9
20211016174607 70 207 0.9 3.5 0.00 0.00 0.00 35 1016.9
20211016174532 70 201 0.9 3.5 0.00 0.00 0.00 36 1016.9
20211016174432 70 181 0.9 3.5 0.00 0.00 0.00 36 1017.0
20211016174332 70 143 0.9 3.5 0.00 0.00 0.00 36 1017.0
20211016174231 70 229 0.9 3.5 0.00 0.00 0.00 37 1017.0
20211016174110 70 231 0.9 3.5 0.00 0.00 0.00 36 1017.0
20211016174032 70 298 0.9 3.5 0.00 0.00 0.00 36 1017.0
20211016173932 70 200 0.0 3.5 0.00 0.00 0.00 37 1017.0
20211016173832 69 183 0.0 1.7 0.00 0.00 0.00 38 1017.0
20211016173732 69 163 0.0 1.7 0.00 0.00 0.00 37 1017.0
20211016173632 69 205 0.0 1.7 0.00 0.00 0.00 37 1017.0
20211016173606 69 218 0.0 1.7 0.00 0.00 0.00 37 1017.0
20211016173532 69 219 0.0 1.7 0.00 0.00 0.00 37 1017.0
20211016173432 69 219 0.0 1.7 0.00 0.00 0.00 38 1017.0
20211016173332 69 217 0.0 1.7 0.00 0.00 0.00 38 1017.0
20211016173232 68 218 0.0 1.7 0.00 0.00 0.00 37 1017.0
20211016173107 68 195 0.0 1.7 0.00 0.00 0.00 38 1016.9
20211016173027 68 193 0.0 1.7 0.00 0.00 0.00 38 1017.0
20211016172928 68 174 0.0 0.9 0.00 0.00 0.00 38 1017.0
20211016172828 67 150 0.0 0.9 0.00 0.00 0.00 38 1017.0
20211016172728 68 333 0.0 0.9 0.00 0.00 0.00 38 1017.0
20211016172628 68 333 0.0 0.9 0.00 0.00 0.00 38 1017.0
20211016172606 68 335 0.0 0.9 0.00 0.00 0.00 38 1017.0
20211016172527 68 97 0.0 0.9 0.00 0.00 0.00 38 1017.0
20211016172427 67 109 0.0 1.7 0.00 0.00 0.00 39 1017.0
20211016172327 67 108 0.0 1.7 0.00 0.00 0.00 40 1017.0
20211016172228 67 109 0.0 1.7 0.00 0.00 0.00 40 1017.0
20211016172109 67 109 0.0 1.7 0.00 0.00 0.00 38 1017.1
20211016172027 67 195 0.0 1.7 0.00 0.00 0.00 38 1017.1
20211016171927 66 197 0.0 1.7 0.00 0.00 0.00 38 1017.1
20211016171829 66 260 0.9 1.7 0.00 0.00 0.00 39 1017.0
20211016171728 66 316 0.9 1.7 0.00 0.00 0.00 38 1017.1
20211016171628 66 316 0.9 1.7 0.00 0.00 0.00 38 1017.1
20211016171601 66 314 0.9 1.7 0.00 0.00 0.00 38 1017.1
20211016171528 66 315 0.9 1.7 0.00 0.00 0.00 38 1017.0
20211016171428 66 316 0.9 1.7 0.00 0.00 0.00 40 1017.1
20211016171329 66 316 0.9 1.7 0.00 0.00 0.00 39 1017.1
20211016171228 66 314 0.9 1.7 0.00 0.00 0.00 39 1017.1
20211016171124 66 316 0.9 1.7 0.00 0.00 0.00 40 1017.1
20211016171101 66 316 0.9 1.7 0.00 0.00 0.00 40 1017.1
20211016171026 66 316 0.9 1.7 0.00 0.00 0.00 40 1017.1
20211016170924 66 316 0.0 1.7 0.00 0.00 0.00 40 1017.1
20211016170824 66 316 0.0 1.7 0.00 0.00 0.00 41 1017.1
20211016170725 66 316 0.0 1.7 0.00 0.00 0.00 42 1017.0
20211016170625 66 316 0.0 1.7 0.00 0.00 0.00 41 1017.0
20211016170601 66 316 0.0 1.7 0.00 0.00 0.00 41 1017.0
20211016170526 66 316 0.0 1.7 0.00 0.00 0.00 42 1017.0
20211016170425 66 316 0.0 1.7 0.00 0.00 0.00 41 1017.1
20211016170324 66 316 0.0 1.7 0.00 0.00 0.00 41 1017.0
20211016170224 66 316 0.0 1.7 0.00 0.00 0.00 40 1017.0
20211016170124 66 332 0.0 1.7 0.00 0.00 0.00 42 1017.1
20211016170108 66 332 0.0 1.7 0.00 0.00 0.00 42 1017.1
20211016170030 66 335 0.0 0.9 0.00 0.00 0.00 42 1017.1
20211016165924 66 336 0.0 0.9 0.00 0.00 0.00 43 1017.1
20211016165824 66 336 0.0 0.9 0.00 0.00 0.00 43 1017.1
20211016165723 65 336 0.0 0.9 0.00 0.00 0.00 44 1017.1
20211016165624 65 335 0.0 0.9 0.00 0.00 0.00 44 1017.1
20211016165601 65 336 0.0 0.9 0.00 0.00 0.00 44 1017.1
20211016165524 65 336 0.0 0.9 0.00 0.00 0.00 44 1017.1
20211016165425 65 336 0.0 0.9 0.00 0.00 0.00 43 1017.1
20211016165324 64 336 0.0 0.9 0.00 0.00 0.00 43 1017.1
20211016165220 64 335 0.0 0.9 0.00 0.00 0.00 44 1017.1
20211016165120 64 336 0.0 0.9 0.00 0.00 0.00 44 1017.1
20211016165101 64 336 0.0 0.9 0.00 0.00 0.00 43 1017.1
20211016165020 64 336 0.0 0.9 0.00 0.00 0.00 43 1017.1
20211016164919 64 336 0.0 0.9 0.00 0.00 0.00 45 1017.1
20211016164820 64 335 0.0 0.9 0.00 0.00 0.00 45 1017.1
20211016164720 63 335 0.0 0.9 0.00 0.00 0.00 46 1017.1
20211016164621 63 337 0.0 0.9 0.00 0.00 0.00 45 1017.1
20211016164601 63 337 0.0 0.9 0.00 0.00 0.00 45 1017.1
20211016164524 63 338 0.0 0.9 0.00 0.00 0.00 45 1017.1
20211016164419 63 338 0.0 0.9 0.00 0.00 0.00 44 1017.1
20211016164319 63 337 0.0 0.9 0.00 0.00 0.00 44 1017.1
20211016164221 63 338 0.0 0.9 0.00 0.00 0.00 45 1017.1
20211016164121 63 45 0.0 0.9 0.00 0.00 0.00 45 1017.2
20211016164101 63 46 0.0 0.9 0.00 0.00 0.00 45 1017.2
20211016164023 63 46 0.0 0.9 0.00 0.00 0.00 47 1017.1
20211016163920 63 45 0.0 0.9 0.00 0.00 0.00 46 1017.2
20211016163820 63 45 0.0 0.9 0.00 0.00 0.00 47 1017.1
20211016163721 63 71 0.0 0.9 0.00 0.00 0.00 47 1017.2
20211016163620 63 70 0.0 0.9 0.00 0.00 0.00 47 1017.1
20211016163601 63 70 0.0 0.9 0.00 0.00 0.00 47 1017.1
20211016163519 62 71 0.0 0.9 0.00 0.00 0.00 47 1017.2
20211016163420 62 70 0.0 0.9 0.00 0.00 0.00 46 1017.2
20211016163316 62 11 0.0 1.7 0.00 0.00 0.00 47 1017.1
20211016163215 62 11 0.0 1.7 0.00 0.00 0.00 47 1017.1
20211016163115 62 11 0.0 1.7 0.00 0.00 0.00 49 1017.1
20211016163057 62 11 0.0 1.7 0.00 0.00 0.00 49 1017.1
20211016163021 62 11 0.0 1.7 0.00 0.00 0.00 49 1017.2
20211016162916 62 11 0.0 1.7 0.00 0.00 0.00 49 1017.2
20211016162815 62 11 0.0 1.7 0.00 0.00 0.00 50 1017.2
20211016162715 61 11 0.0 1.7 0.00 0.00 0.00 48 1017.2
20211016162616 61 11 0.0 1.7 0.00 0.00 0.00 50 1017.2
20211016162557 61 11 0.0 1.7 0.00 0.00 0.00 50 1017.2
20211016162515 61 11 0.0 1.7 0.00 0.00 0.00 49 1017.2
20211016162416 61 11 0.0 1.7 0.00 0.00 0.00 50 1017.2
20211016162316 61 261 0.0 0.0 0.00 0.00 0.00 52 1017.2
20211016162216 60 262 0.0 0.0 0.00 0.00 0.00 50 1017.3
20211016162116 60 262 0.0 0.0 0.00 0.00 0.00 50 1017.3
20211016162057 60 262 0.0 0.0 0.00 0.00 0.00 50 1017.3
20211016162016 60 262 0.0 0.0 0.00 0.00 0.00 50 1017.3
20211016161915 60 262 0.0 0.0 0.00 0.00 0.00 50 1017.3
20211016161818 60 230 0.0 0.0 0.00 0.00 0.00 51 1017.3
20211016161716 60 229 0.0 0.0 0.00 0.00 0.00 51 1017.3
20211016161615 60 230 0.0 0.0 0.00 0.00 0.00 51 1017.3
20211016161556 60 229 0.0 0.0 0.00 0.00 0.00 51 1017.3
20211016161516 60 229 0.0 0.0 0.00 0.00 0.00 51 1017.3
20211016161419 60 229 0.0 0.0 0.00 0.00 0.00 52 1017.3
20211016161312 60 229 0.0 0.0 0.00 0.00 0.00 52 1017.3
20211016161212 59 230 0.0 0.0 0.00 0.00 0.00 52 1017.3
20211016161112 59 229 0.0 0.0 0.00 0.00 0.00 53 1017.4
20211016161057 59 229 0.0 0.0 0.00 0.00 0.00 53 1017.4
20211016161012 59 229 0.0 0.0 0.00 0.00 0.00 53 1017.4
20211016160911 59 230 0.0 0.0 0.00 0.00 0.00 53 1017.4
20211016160812 59 229 0.0 0.9 0.00 0.00 0.00 53 1017.4
20211016160713 59 229 0.0 0.9 0.00 0.00 0.00 54 1017.4
20211016160612 59 229 0.0 0.9 0.00 0.00 0.00 56 1017.4
20211016160557 59 229 0.0 0.9 0.00 0.00 0.00 56 1017.4
20211016160512 59 229 0.0 0.9 0.00 0.00 0.00 58 1017.4
20211016160411 58 229 0.0 0.9 0.00 0.00 0.00 56 1017.4
20211016160311 58 229 0.0 0.9 0.00 0.00 0.00 56 1017.4
20211016160211 58 229 0.0 0.9 0.00 0.00 0.00 58 1017.4
20211016160119 58 229 0.0 0.9 0.00 0.00 0.00 57 1017.4
20211016160109 58 229 0.0 0.9 0.00 0.00 0.00 57 1017.4
20211016160012 58 229 0.0 0.9 0.00 0.00 0.00 57 1017.4
20211016155913 58 229 0.0 0.9 0.00 0.00 0.00 58 1017.4
20211016155812 57 229 0.0 0.0 0.00 0.00 0.00 60 1017.4
20211016155712 57 229 0.0 0.0 0.00 0.00 0.00 61 1017.4
20211016155612 57 229 0.0 0.0 0.00 0.00 0.00 60 1017.4
20211016155557 57 229 0.0 0.0 0.00 0.00 0.00 60 1017.4
20211016155507 56 230 0.0 0.0 0.00 0.00 0.00 60 1017.4
20211016155407 56 229 0.0 0.0 0.00 0.00 0.00 61 1017.4
20211016155308 56 229 0.0 0.0 0.00 0.00 0.00 61 1017.4
20211016155207 56 231 0.0 0.0 0.00 0.00 0.00 62 1017.4
20211016155108 56 231 0.0 0.0 0.00 0.00 0.00 63 1017.5
20211016155057 56 231 0.0 0.0 0.00 0.00 0.00 63 1017.5
20211016155012 56 231 0.0 0.0 0.00 0.00 0.00 62 1017.5
20211016154957 56 231 0.0 0.0 0.00 0.00 0.00 63 1017.5
20211016154949 56 231 0.0 0.0 0.00 0.00 0.00 63 1017.5
20211016154707 55 231 0.0 0.0 0.00 0.00 0.00 64 1017.5